| time (UTC) | temp C | wind direction | speed KPH | gust KPH | rain 1hr cm | rain 24hr cm | rain mn cm | humidity % | barometer mb |
| 20260510082503 | 22 | 155 | 3.2 | 8.0 | 0.00 | 0.00 | 0.00 | 95 | 1009.0 |
| 20260510082402 | 22 | 113 | 1.6 | 8.0 | 0.00 | 0.00 | 0.00 | 95 | 1009.0 |
| 20260510082306 | 22 | 117 | 3.2 | 8.0 | 0.00 | 0.00 | 0.00 | 95 | 1009.0 |
| 20260510082203 | 22 | 117 | 3.2 | 8.0 | 0.00 | 0.00 | 0.00 | 95 | 1009.0 |
| 20260510082104 | 22 | 128 | 3.2 | 8.0 | 0.00 | 0.00 | 0.00 | 95 | 1009.0 |
| 20260510082002 | 22 | 145 | 3.2 | 8.0 | 0.00 | 0.00 | 0.00 | 95 | 1009.0 |
| 20260510081902 | 22 | 176 | 3.2 | 8.0 | 0.00 | 0.00 | 0.00 | 95 | 1009.0 |
| 20260510081803 | 22 | 166 | 3.2 | 8.0 | 0.00 | 0.00 | 0.00 | 95 | 1009.1 |
| 20260510081702 | 22 | 169 | 3.2 | 8.0 | 0.00 | 0.00 | 0.00 | 95 | 1009.1 |
| 20260510081602 | 22 | 190 | 1.6 | 4.8 | 0.00 | 0.00 | 0.00 | 95 | 1009.0 |
| 20260510081502 | 22 | 172 | 0.0 | 4.8 | 0.00 | 0.00 | 0.00 | 95 | 1009.1 |
| 20260510081402 | 22 | 110 | 0.0 | 0.0 | 0.00 | 0.00 | 0.00 | 95 | 1009.1 |
| 20260510081303 | 22 | 169 | 0.0 | 0.0 | 0.00 | 0.00 | 0.00 | 95 | 1009.1 |
| 20260510081202 | 22 | 175 | 0.0 | 0.0 | 0.00 | 0.00 | 0.00 | 95 | 1009.1 |
| 20260510081103 | 22 | 175 | 0.0 | 0.0 | 0.00 | 0.00 | 0.00 | 95 | 1009.1 |
| 20260510081002 | 22 | 189 | 0.0 | 0.0 | 0.00 | 0.00 | 0.00 | 95 | 1009.1 |
| 20260510080902 | 22 | 189 | 0.0 | 0.0 | 0.00 | 0.00 | 0.00 | 95 | 1009.1 |
| 20260510080802 | 22 | 189 | 0.0 | 0.0 | 0.00 | 0.00 | 0.00 | 95 | 1009.2 |
| 20260510080703 | 22 | 189 | 0.0 | 0.0 | 0.00 | 0.00 | 0.00 | 95 | 1009.2 |
| 20260510080602 | 22 | 189 | 0.0 | 0.0 | 0.00 | 0.00 | 0.00 | 95 | 1009.1 |
| 20260510080502 | 22 | 189 | 0.0 | 0.0 | 0.00 | 0.00 | 0.00 | 95 | 1009.2 |
| 20260510080403 | 22 | 189 | 0.0 | 0.0 | 0.00 | 0.00 | 0.00 | 95 | 1009.2 |
| 20260510080302 | 22 | 189 | 0.0 | 0.0 | 0.00 | 0.00 | 0.00 | 95 | 1009.2 |
| 20260510080202 | 22 | 189 | 0.0 | 0.0 | 0.00 | 0.00 | 0.00 | 94 | 1009.2 |
| 20260510080004 | 23 | 189 | 0.0 | 0.0 | 0.00 | 0.00 | 0.00 | 95 | 1009.2 |
| 20260510075901 | 23 | 189 | 0.0 | 0.0 | 0.00 | 0.00 | 0.00 | 95 | 1009.2 |
| 20260510075802 | 23 | 189 | 0.0 | 0.0 | 0.00 | 0.00 | 0.00 | 95 | 1009.1 |
| 20260510075704 | 23 | 189 | 0.0 | 0.0 | 0.00 | 0.00 | 0.00 | 95 | 1009.1 |
| 20260510075603 | 23 | 189 | 0.0 | 0.0 | 0.00 | 0.00 | 0.00 | 95 | 1009.2 |
| 20260510075502 | 22 | 189 | 0.0 | 0.0 | 0.00 | 0.00 | 0.00 | 94 | 1009.2 |
| 20260510075403 | 22 | 189 | 0.0 | 0.0 | 0.00 | 0.00 | 0.00 | 94 | 1009.2 |
| 20260510075305 | 23 | 189 | 0.0 | 0.0 | 0.00 | 0.00 | 0.00 | 95 | 1009.2 |
| 20260510075202 | 23 | 189 | 0.0 | 0.0 | 0.00 | 0.00 | 0.00 | 95 | 1009.2 |
| 20260510075103 | 23 | 189 | 0.0 | 0.0 | 0.00 | 0.00 | 0.00 | 95 | 1009.1 |
| 20260510075002 | 23 | 189 | 0.0 | 0.0 | 0.00 | 0.00 | 0.00 | 95 | 1009.2 |
| 20260510074902 | 23 | 189 | 0.0 | 0.0 | 0.00 | 0.00 | 0.00 | 95 | 1009.2 |
| 20260510074802 | 23 | 189 | 0.0 | 0.0 | 0.00 | 0.00 | 0.00 | 95 | 1009.2 |
| 20260510074703 | 23 | 189 | 0.0 | 0.0 | 0.00 | 0.00 | 0.00 | 95 | 1009.1 |
| 20260510074603 | 23 | 189 | 0.0 | 0.0 | 0.00 | 0.00 | 0.00 | 94 | 1009.2 |
| 20260510074502 | 23 | 189 | 0.0 | 0.0 | 0.00 | 0.00 | 0.00 | 95 | 1009.1 |
| 20260510074403 | 23 | 189 | 0.0 | 0.0 | 0.00 | 0.00 | 0.00 | 95 | 1009.1 |
| 20260510074303 | 23 | 189 | 0.0 | 0.0 | 0.00 | 0.00 | 0.00 | 94 | 1009.1 |
| 20260510074202 | 23 | 189 | 0.0 | 0.0 | 0.00 | 0.00 | 0.00 | 94 | 1009.1 |
| 20260510074102 | 23 | 189 | 0.0 | 0.0 | 0.00 | 0.00 | 0.00 | 94 | 1009.1 |
| 20260510074004 | 23 | 189 | 0.0 | 0.0 | 0.00 | 0.00 | 0.00 | 94 | 1009.1 |
| 20260510073902 | 23 | 189 | 0.0 | 0.0 | 0.00 | 0.00 | 0.00 | 94 | 1009.1 |
| 20260510073802 | 23 | 189 | 0.0 | 0.0 | 0.00 | 0.00 | 0.00 | 95 | 1009.2 |
| 20260510073703 | 23 | 189 | 0.0 | 0.0 | 0.00 | 0.00 | 0.00 | 95 | 1009.1 |
| 20260510073603 | 23 | 189 | 0.0 | 0.0 | 0.00 | 0.00 | 0.00 | 94 | 1009.1 |
| 20260510073503 | 23 | 190 | 0.0 | 0.0 | 0.00 | 0.00 | 0.00 | 94 | 1009.1 |
| 20260510073402 | 23 | 190 | 0.0 | 0.0 | 0.00 | 0.00 | 0.00 | 94 | 1009.1 |
| 20260510073302 | 23 | 190 | 0.0 | 0.0 | 0.00 | 0.00 | 0.00 | 94 | 1009.1 |
| 20260510073203 | 23 | 190 | 0.0 | 0.0 | 0.00 | 0.00 | 0.00 | 94 | 1009.2 |
| 20260510073101 | 23 | 190 | 0.0 | 0.0 | 0.00 | 0.00 | 0.00 | 94 | 1009.2 |
| 20260510073004 | 23 | 190 | 0.0 | 0.0 | 0.00 | 0.00 | 0.00 | 94 | 1009.1 |
| 20260510072902 | 23 | 190 | 0.0 | 1.6 | 0.00 | 0.00 | 0.00 | 94 | 1009.1 |
| 20260510072802 | 23 | 190 | 0.0 | 1.6 | 0.00 | 0.00 | 0.00 | 94 | 1009.1 |
| 20260510072703 | 23 | 190 | 0.0 | 1.6 | 0.00 | 0.00 | 0.00 | 94 | 1009.1 |
| 20260510072602 | 23 | 190 | 0.0 | 3.2 | 0.00 | 0.00 | 0.00 | 94 | 1009.1 |
| 20260510072503 | 23 | 190 | 0.0 | 3.2 | 0.00 | 0.00 | 0.00 | 94 | 1009.1 |
| 20260510072402 | 23 | 137 | 0.0 | 3.2 | 0.00 | 0.00 | 0.00 | 94 | 1009.1 |
| 20260510072305 | 23 | 137 | 0.0 | 4.8 | 0.00 | 0.00 | 0.00 | 94 | 1009.1 |
| 20260510072202 | 23 | 137 | 0.0 | 4.8 | 0.00 | 0.00 | 0.00 | 94 | 1009.1 |
| 20260510072103 | 23 | 137 | 0.0 | 4.8 | 0.00 | 0.00 | 0.00 | 94 | 1009.1 |
| 20260510072003 | 23 | 137 | 0.0 | 4.8 | 0.00 | 0.00 | 0.00 | 94 | 1009.1 |
| 20260510071903 | 23 | 137 | 0.0 | 4.8 | 0.00 | 0.00 | 0.00 | 94 | 1009.0 |
| 20260510071802 | 23 | 140 | 0.0 | 4.8 | 0.00 | 0.00 | 0.00 | 94 | 1009.0 |
| 20260510071702 | 23 | 134 | 1.6 | 4.8 | 0.00 | 0.00 | 0.00 | 94 | 1009.0 |
| 20260510071604 | 23 | 134 | 3.2 | 6.4 | 0.00 | 0.00 | 0.00 | 94 | 1009.0 |
| 20260510071502 | 23 | 134 | 3.2 | 6.4 | 0.00 | 0.00 | 0.00 | 94 | 1009.0 |
| 20260510071402 | 23 | 120 | 3.2 | 6.4 | 0.00 | 0.00 | 0.00 | 94 | 1009.0 |
| 20260510071303 | 23 | 144 | 1.6 | 6.4 | 0.00 | 0.00 | 0.00 | 94 | 1009.1 |
| 20260510071202 | 23 | 147 | 1.6 | 6.4 | 0.00 | 0.00 | 0.00 | 94 | 1009.0 |
| 20260510071103 | 23 | 127 | 0.0 | 6.4 | 0.00 | 0.00 | 0.00 | 94 | 1009.1 |
| 20260510071002 | 23 | 127 | 1.6 | 6.4 | 0.00 | 0.00 | 0.00 | 94 | 1009.1 |
| 20260510070903 | 23 | 127 | 1.6 | 6.4 | 0.00 | 0.00 | 0.00 | 94 | 1009.2 |
| 20260510070802 | 23 | 124 | 3.2 | 6.4 | 0.00 | 0.00 | 0.00 | 94 | 1009.2 |
| 20260510070702 | 23 | 124 | 1.6 | 6.4 | 0.00 | 0.00 | 0.00 | 94 | 1009.2 |
| 20260510070603 | 23 | 118 | 1.6 | 4.8 | 0.00 | 0.00 | 0.00 | 94 | 1009.2 |
| 20260510070503 | 23 | 134 | 1.6 | 4.8 | 0.00 | 0.00 | 0.00 | 94 | 1009.2 |
| 20260510070402 | 23 | 134 | 1.6 | 4.8 | 0.00 | 0.00 | 0.00 | 94 | 1009.2 |
| 20260510070304 | 23 | 134 | 3.2 | 4.8 | 0.00 | 0.00 | 0.00 | 94 | 1009.2 |
| 20260510070202 | 23 | 135 | 3.2 | 4.8 | 0.00 | 0.00 | 0.00 | 94 | 1009.2 |
| 20260510070104 | 23 | 138 | 1.6 | 6.4 | 0.00 | 0.00 | 0.00 | 93 | 1009.2 |
| 20260510070003 | 23 | 141 | 1.6 | 6.4 | 0.00 | 0.00 | 0.00 | 93 | 1009.2 |
| 20260510065903 | 23 | 142 | 3.2 | 6.4 | 0.00 | 0.00 | 0.00 | 93 | 1009.2 |
| 20260510065803 | 23 | 172 | 3.2 | 6.4 | 0.00 | 0.00 | 0.00 | 93 | 1009.2 |
| 20260510065702 | 23 | 137 | 3.2 | 6.4 | 0.00 | 0.00 | 0.00 | 93 | 1009.2 |
| 20260510065603 | 23 | 137 | 3.2 | 8.0 | 0.00 | 0.00 | 0.00 | 93 | 1009.2 |
| 20260510065504 | 23 | 137 | 3.2 | 8.0 | 0.00 | 0.00 | 0.00 | 93 | 1009.2 |
| 20260510065403 | 23 | 137 | 3.2 | 8.0 | 0.00 | 0.00 | 0.00 | 93 | 1009.1 |
| 20260510065306 | 23 | 137 | 3.2 | 8.0 | 0.00 | 0.00 | 0.00 | 93 | 1009.2 |
| 20260510065202 | 23 | 157 | 3.2 | 8.0 | 0.00 | 0.00 | 0.00 | 93 | 1009.1 |
| 20260510065102 | 23 | 158 | 3.2 | 8.0 | 0.00 | 0.00 | 0.00 | 93 | 1009.1 |
| 20260510065003 | 23 | 118 | 3.2 | 8.0 | 0.00 | 0.00 | 0.00 | 93 | 1009.2 |
| 20260510064903 | 23 | 169 | 3.2 | 8.0 | 0.00 | 0.00 | 0.00 | 93 | 1009.1 |
| 20260510064803 | 23 | 154 | 3.2 | 8.0 | 0.00 | 0.00 | 0.00 | 93 | 1009.1 |
| 20260510064704 | 23 | 159 | 3.2 | 8.0 | 0.00 | 0.00 | 0.00 | 93 | 1009.1 |
| 20260510064603 | 23 | 173 | 3.2 | 8.0 | 0.00 | 0.00 | 0.00 | 93 | 1009.2 |
| 20260510064503 | 23 | 166 | 4.8 | 8.0 | 0.00 | 0.00 | 0.00 | 93 | 1009.2 |
| 20260510064403 | 23 | 193 | 4.8 | 8.0 | 0.00 | 0.00 | 0.00 | 93 | 1009.2 |
| 20260510064302 | 23 | 158 | 4.8 | 8.0 | 0.00 | 0.00 | 0.00 | 93 | 1009.2 |
| 20260510064202 | 23 | 179 | 3.2 | 8.0 | 0.00 | 0.00 | 0.00 | 93 | 1009.2 |
| 20260510064102 | 23 | 169 | 3.2 | 8.0 | 0.00 | 0.00 | 0.00 | 93 | 1009.2 |
| 20260510064004 | 23 | 197 | 1.6 | 8.0 | 0.00 | 0.00 | 0.00 | 93 | 1009.2 |
| 20260510063903 | 23 | 158 | 1.6 | 9.7 | 0.00 | 0.00 | 0.00 | 93 | 1009.2 |
| 20260510063803 | 23 | 157 | 3.2 | 9.7 | 0.00 | 0.00 | 0.00 | 93 | 1009.2 |
| 20260510063701 | 23 | 130 | 3.2 | 9.7 | 0.00 | 0.00 | 0.00 | 93 | 1009.3 |
| 20260510063601 | 23 | 131 | 1.6 | 9.7 | 0.00 | 0.00 | 0.00 | 93 | 1009.2 |
| 20260510063503 | 23 | 169 | 1.6 | 9.7 | 0.00 | 0.00 | 0.00 | 93 | 1009.2 |
| 20260510063402 | 23 | 148 | 3.2 | 9.7 | 0.00 | 0.00 | 0.00 | 93 | 1009.2 |
| 20260510063302 | 23 | 120 | 3.2 | 9.7 | 0.00 | 0.00 | 0.00 | 93 | 1009.2 |
| 20260510063202 | 23 | 107 | 3.2 | 9.7 | 0.00 | 0.00 | 0.00 | 93 | 1009.2 |
| 20260510063103 | 23 | 128 | 4.8 | 9.7 | 0.00 | 0.00 | 0.00 | 93 | 1009.2 |
| 20260510063002 | 23 | 183 | 3.2 | 9.7 | 0.00 | 0.00 | 0.00 | 93 | 1009.2 |
| 20260510062903 | 23 | 131 | 3.2 | 9.7 | 0.00 | 0.00 | 0.00 | 93 | 1009.2 |
| 20260510062802 | 23 | 120 | 3.2 | 9.7 | 0.00 | 0.00 | 0.00 | 93 | 1009.2 |
| 20260510062702 | 23 | 31 | 3.2 | 9.7 | 0.00 | 0.00 | 0.00 | 93 | 1009.1 |
| 20260510062602 | 23 | 30 | 4.8 | 9.7 | 0.00 | 0.00 | 0.00 | 93 | 1009.2 |
| 20260510062504 | 23 | 47 | 6.4 | 9.7 | 0.00 | 0.00 | 0.00 | 93 | 1009.2 |
| 20260510062402 | 23 | 32 | 6.4 | 8.0 | 0.00 | 0.00 | 0.00 | 93 | 1009.2 |
| 20260510062306 | 23 | 32 | 6.4 | 8.0 | 0.00 | 0.00 | 0.00 | 93 | 1009.2 |
| 20260510062204 | 23 | 38 | 6.4 | 8.0 | 0.00 | 0.00 | 0.00 | 93 | 1009.3 |
| 20260510062102 | 23 | 30 | 4.8 | 8.0 | 0.00 | 0.00 | 0.00 | 93 | 1009.2 |
| 20260510062002 | 23 | 35 | 3.2 | 9.7 | 0.00 | 0.00 | 0.00 | 93 | 1009.2 |
| 20260510061903 | 23 | 30 | 3.2 | 9.7 | 0.00 | 0.00 | 0.00 | 93 | 1009.2 |
| 20260510061804 | 23 | 37 | 3.2 | 9.7 | 0.00 | 0.00 | 0.00 | 93 | 1009.2 |
| 20260510061702 | 23 | 30 | 3.2 | 9.7 | 0.00 | 0.00 | 0.00 | 93 | 1009.2 |
| 20260510061602 | 23 | 62 | 3.2 | 9.7 | 0.00 | 0.00 | 0.00 | 93 | 1009.2 |
| 20260510061503 | 23 | 49 | 3.2 | 9.7 | 0.00 | 0.00 | 0.00 | 93 | 1009.2 |
| 20260510061402 | 23 | 35 | 3.2 | 9.7 | 0.00 | 0.00 | 0.00 | 93 | 1009.2 |
| 20260510061303 | 23 | 34 | 3.2 | 9.7 | 0.00 | 0.00 | 0.00 | 93 | 1009.2 |
| 20260510061203 | 23 | 41 | 4.8 | 9.7 | 0.00 | 0.00 | 0.00 | 93 | 1009.2 |
| 20260510061103 | 23 | 58 | 4.8 | 9.7 | 0.00 | 0.00 | 0.00 | 93 | 1009.2 |
| 20260510061002 | 23 | 39 | 4.8 | 9.7 | 0.00 | 0.00 | 0.00 | 93 | 1009.2 |
| 20260510060903 | 23 | 42 | 6.4 | 9.7 | 0.00 | 0.00 | 0.00 | 93 | 1009.3 |
| 20260510060802 | 23 | 45 | 4.8 | 9.7 | 0.00 | 0.00 | 0.00 | 93 | 1009.2 |
| 20260510060702 | 23 | 39 | 3.2 | 9.7 | 0.00 | 0.00 | 0.00 | 93 | 1009.2 |
| 20260510060602 | 23 | 45 | 3.2 | 9.7 | 0.00 | 0.00 | 0.00 | 93 | 1009.3 |
| 20260510060502 | 23 | 37 | 3.2 | 9.7 | 0.00 | 0.00 | 0.00 | 93 | 1009.2 |
| 20260510060403 | 23 | 38 | 4.8 | 9.7 | 0.00 | 0.00 | 0.00 | 93 | 1009.2 |
| 20260510060302 | 23 | 37 | 3.2 | 9.7 | 0.00 | 0.00 | 0.00 | 93 | 1009.2 |
| 20260510060202 | 23 | 0 | 3.2 | 8.0 | 0.00 | 0.00 | 0.00 | 93 | 1009.2 |
| 20260510060104 | 23 | 24 | 3.2 | 8.0 | 0.00 | 0.00 | 0.00 | 93 | 1009.3 |
| 20260510060003 | 23 | 41 | 3.2 | 8.0 | 0.00 | 0.00 | 0.00 | 93 | 1009.2 |
| 20260510055902 | 23 | 32 | 4.8 | 8.0 | 0.00 | 0.00 | 0.00 | 93 | 1009.3 |
| 20260510055804 | 23 | 31 | 3.2 | 8.0 | 0.00 | 0.00 | 0.00 | 93 | 1009.3 |
| 20260510055703 | 23 | 37 | 4.8 | 8.0 | 0.00 | 0.00 | 0.00 | 93 | 1009.3 |
| 20260510055602 | 23 | 38 | 3.2 | 8.0 | 0.00 | 0.00 | 0.00 | 93 | 1009.3 |
| 20260510055502 | 23 | 37 | 1.6 | 8.0 | 0.00 | 0.00 | 0.00 | 93 | 1009.3 |
| 20260510055403 | 23 | 35 | 3.2 | 8.0 | 0.00 | 0.00 | 0.00 | 93 | 1009.3 |
| 20260510055301 | 23 | 44 | 4.8 | 8.0 | 0.00 | 0.00 | 0.00 | 93 | 1009.3 |
| 20260510055202 | 23 | 37 | 4.8 | 8.0 | 0.00 | 0.00 | 0.00 | 93 | 1009.2 |
| 20260510055104 | 23 | 32 | 1.6 | 6.4 | 0.00 | 0.00 | 0.00 | 93 | 1009.3 |
| 20260510055002 | 23 | 27 | 3.2 | 6.4 | 0.00 | 0.00 | 0.00 | 93 | 1009.3 |
| 20260510054901 | 23 | 27 | 3.2 | 8.0 | 0.00 | 0.00 | 0.00 | 93 | 1009.3 |
| 20260510054801 | 23 | 30 | 3.2 | 8.0 | 0.00 | 0.00 | 0.00 | 93 | 1009.3 |
| 20260510054704 | 23 | 30 | 3.2 | 8.0 | 0.00 | 0.00 | 0.00 | 93 | 1009.3 |
| 20260510054602 | 23 | 35 | 3.2 | 8.0 | 0.00 | 0.00 | 0.00 | 93 | 1009.3 |
| 20260510054503 | 23 | 38 | 3.2 | 8.0 | 0.00 | 0.00 | 0.00 | 93 | 1009.3 |
| 20260510054402 | 23 | 44 | 3.2 | 8.0 | 0.00 | 0.00 | 0.00 | 93 | 1009.3 |
| 20260510054303 | 23 | 34 | 3.2 | 8.0 | 0.00 | 0.00 | 0.00 | 93 | 1009.3 |
| 20260510054203 | 23 | 31 | 3.2 | 8.0 | 0.00 | 0.00 | 0.00 | 93 | 1009.3 |
| 20260510054103 | 23 | 35 | 3.2 | 9.7 | 0.00 | 0.00 | 0.00 | 93 | 1009.3 |
| 20260510054003 | 23 | 38 | 3.2 | 9.7 | 0.00 | 0.00 | 0.00 | 93 | 1009.4 |
| 20260510053902 | 23 | 23 | 3.2 | 9.7 | 0.00 | 0.00 | 0.00 | 93 | 1009.4 |
| 20260510053802 | 23 | 41 | 3.2 | 9.7 | 0.00 | 0.00 | 0.00 | 93 | 1009.3 |
| 20260510053702 | 23 | 25 | 4.8 | 9.7 | 0.00 | 0.00 | 0.00 | 93 | 1009.4 |
| 20260510053602 | 23 | 37 | 4.8 | 9.7 | 0.00 | 0.00 | 0.00 | 93 | 1009.3 |
| 20260510053502 | 23 | 32 | 3.2 | 9.7 | 0.00 | 0.00 | 0.00 | 93 | 1009.4 |
| 20260510053403 | 23 | 27 | 3.2 | 9.7 | 0.00 | 0.00 | 0.00 | 93 | 1009.3 |
| 20260510053302 | 23 | 32 | 4.8 | 9.7 | 0.00 | 0.00 | 0.00 | 93 | 1009.3 |
| 20260510053202 | 23 | 27 | 4.8 | 9.7 | 0.00 | 0.00 | 0.00 | 93 | 1009.3 |
| 20260510053102 | 23 | 37 | 4.8 | 9.7 | 0.00 | 0.00 | 0.00 | 93 | 1009.3 |
| 20260510053003 | 23 | 28 | 4.8 | 9.7 | 0.00 | 0.00 | 0.00 | 93 | 1009.4 |
| 20260510052902 | 23 | 31 | 4.8 | 9.7 | 0.00 | 0.00 | 0.00 | 93 | 1009.4 |
| 20260510052803 | 23 | 28 | 4.8 | 9.7 | 0.00 | 0.00 | 0.00 | 93 | 1009.4 |
| 20260510052702 | 23 | 25 | 4.8 | 9.7 | 0.00 | 0.00 | 0.00 | 92 | 1009.4 |
| 20260510052602 | 23 | 21 | 6.4 | 9.7 | 0.00 | 0.00 | 0.00 | 92 | 1009.3 |
| 20260510052504 | 23 | 34 | 6.4 | 9.7 | 0.00 | 0.00 | 0.00 | 92 | 1009.4 |
| 20260510052403 | 23 | 25 | 4.8 | 9.7 | 0.00 | 0.00 | 0.00 | 92 | 1009.3 |
| 20260510052306 | 23 | 35 | 6.4 | 8.0 | 0.00 | 0.00 | 0.00 | 92 | 1009.4 |
| 20260510052202 | 23 | 28 | 4.8 | 8.0 | 0.00 | 0.00 | 0.00 | 92 | 1009.4 |
| 20260510052103 | 23 | 30 | 3.2 | 8.0 | 0.00 | 0.00 | 0.00 | 92 | 1009.4 |
| 20260510052003 | 23 | 25 | 3.2 | 8.0 | 0.00 | 0.00 | 0.00 | 92 | 1009.5 |
| 20260510051901 | 23 | 25 | 3.2 | 8.0 | 0.00 | 0.00 | 0.00 | 92 | 1009.4 |
| 20260510051801 | 23 | 21 | 3.2 | 8.0 | 0.00 | 0.00 | 0.00 | 92 | 1009.4 |
| 20260510051658 | 23 | 27 | 4.8 | 8.0 | 0.00 | 0.00 | 0.00 | 92 | 1009.4 |
| 20260510051558 | 23 | 35 | 3.2 | 8.0 | 0.00 | 0.00 | 0.00 | 92 | 1009.3 |
| 20260510051455 | 23 | 31 | 1.6 | 9.7 | 0.00 | 0.00 | 0.00 | 92 | 1009.3 |
| 20260510051354 | 23 | 27 | 1.6 | 9.7 | 0.00 | 0.00 | 0.00 | 92 | 1009.3 |
| 20260510051253 | 23 | 28 | 3.2 | 9.7 | 0.00 | 0.00 | 0.00 | 92 | 1009.4 |
| 20260510051152 | 23 | 30 | 3.2 | 9.7 | 0.00 | 0.00 | 0.00 | 92 | 1009.4 |
| 20260510051048 | 23 | 39 | 3.2 | 9.7 | 0.00 | 0.00 | 0.00 | 92 | 1009.5 |
| 20260510050947 | 23 | 27 | 3.2 | 9.7 | 0.00 | 0.00 | 0.00 | 92 | 1009.5 |
| 20260510050846 | 23 | 24 | 3.2 | 11.3 | 0.00 | 0.00 | 0.00 | 91 | 1009.5 |
| 20260510050746 | 23 | 34 | 4.8 | 11.3 | 0.00 | 0.00 | 0.00 | 91 | 1009.5 |
| 20260510050645 | 23 | 35 | 4.8 | 11.3 | 0.00 | 0.00 | 0.00 | 91 | 1009.5 |
| 20260510050543 | 23 | 27 | 4.8 | 11.3 | 0.00 | 0.00 | 0.00 | 91 | 1009.5 |
| 20260510050440 | 23 | 32 | 4.8 | 11.3 | 0.00 | 0.00 | 0.00 | 91 | 1009.6 |
| 20260510050338 | 23 | 34 | 4.8 | 11.3 | 0.00 | 0.00 | 0.00 | 91 | 1009.5 |
| 20260510050238 | 23 | 25 | 4.8 | 11.3 | 0.00 | 0.00 | 0.00 | 91 | 1009.5 |
| 20260510050135 | 23 | 28 | 6.4 | 16.1 | 0.00 | 0.00 | 0.00 | 91 | 1009.6 |
| 20260510050035 | 23 | 31 | 8.0 | 16.1 | 0.00 | 0.00 | 0.00 | 91 | 1009.5 |
| 20260510045933 | 23 | 25 | 6.4 | 16.1 | 0.00 | 0.00 | 0.00 | 91 | 1009.5 |
| 20260510045832 | 23 | 28 | 4.8 | 16.1 | 0.00 | 0.00 | 0.00 | 91 | 1009.6 |
| 20260510045731 | 23 | 25 | 6.4 | 16.1 | 0.00 | 0.00 | 0.00 | 91 | 1009.6 |
| 20260510045630 | 23 | 28 | 8.0 | 16.1 | 0.00 | 0.00 | 0.00 | 91 | 1009.6 |
| 20260510045531 | 23 | 27 | 8.0 | 16.1 | 0.00 | 0.00 | 0.00 | 91 | 1009.5 |
| 20260510045431 | 23 | 27 | 9.7 | 16.1 | 0.00 | 0.00 | 0.00 | 91 | 1009.6 |
| 20260510045331 | 23 | 27 | 9.7 | 16.1 | 0.00 | 0.00 | 0.00 | 91 | 1009.5 |
| 20260510045233 | 23 | 28 | 9.7 | 16.1 | 0.00 | 0.00 | 0.00 | 91 | 1009.6 |
| 20260510045131 | 23 | 25 | 8.0 | 17.7 | 0.00 | 0.00 | 0.00 | 91 | 1009.6 |
| 20260510045031 | 23 | 31 | 6.4 | 17.7 | 0.00 | 0.00 | 0.00 | 91 | 1009.6 |
| 20260510044931 | 23 | 27 | 6.4 | 17.7 | 0.00 | 0.00 | 0.00 | 91 | 1009.6 |
| 20260510044831 | 23 | 28 | 6.4 | 17.7 | 0.00 | 0.00 | 0.00 | 90 | 1009.6 |
| 20260510044731 | 23 | 28 | 6.4 | 17.7 | 0.00 | 0.00 | 0.00 | 90 | 1009.5 |
| 20260510044632 | 23 | 28 | 6.4 | 17.7 | 0.00 | 0.00 | 0.00 | 90 | 1009.6 |
| 20260510044532 | 23 | 30 | 4.8 | 17.7 | 0.00 | 0.00 | 0.00 | 90 | 1009.5 |
| 20260510044432 | 23 | 27 | 6.4 | 19.3 | 0.00 | 0.00 | 0.00 | 90 | 1009.6 |
| 20260510044331 | 23 | 37 | 9.7 | 20.9 | 0.00 | 0.00 | 0.00 | 90 | 1009.6 |
| 20260510044229 | 23 | 25 | 8.0 | 20.9 | 0.00 | 0.00 | 0.00 | 90 | 1009.6 |
| 20260510044129 | 23 | 21 | 8.0 | 20.9 | 0.00 | 0.00 | 0.00 | 90 | 1009.6 |
| 20260510044027 | 23 | 38 | 9.7 | 20.9 | 0.00 | 0.00 | 0.00 | 90 | 1009.7 |
| 20260510043926 | 23 | 30 | 11.3 | 20.9 | 0.00 | 0.00 | 0.00 | 90 | 1009.7 |
| 20260510043824 | 23 | 21 | 9.7 | 20.9 | 0.00 | 0.00 | 0.00 | 90 | 1009.7 |
| 20260510043723 | 23 | 30 | 9.7 | 20.9 | 0.00 | 0.00 | 0.00 | 90 | 1009.7 |
| 20260510043620 | 23 | 28 | 12.9 | 20.9 | 0.00 | 0.00 | 0.00 | 89 | 1009.7 |
| 20260510043520 | 23 | 28 | 12.9 | 20.9 | 0.00 | 0.00 | 0.00 | 89 | 1009.7 |
| 20260510043418 | 23 | 31 | 11.3 | 20.9 | 0.00 | 0.00 | 0.00 | 89 | 1009.8 |
| 20260510043317 | 23 | 27 | 9.7 | 20.9 | 0.00 | 0.00 | 0.00 | 89 | 1009.8 |
| 20260510043214 | 23 | 30 | 11.3 | 20.9 | 0.00 | 0.00 | 0.00 | 89 | 1009.8 |
| 20260510043112 | 23 | 27 | 14.5 | 20.9 | 0.00 | 0.00 | 0.00 | 89 | 1009.8 |
| 20260510043012 | 23 | 34 | 14.5 | 20.9 | 0.00 | 0.00 | 0.00 | 89 | 1009.8 |
| 20260510042910 | 23 | 31 | 12.9 | 17.7 | 0.00 | 0.00 | 0.00 | 89 | 1009.8 |
| 20260510042810 | 23 | 28 | 14.5 | 19.3 | 0.00 | 0.00 | 0.00 | 89 | 1009.8 |
| 20260510042708 | 23 | 25 | 11.3 | 20.9 | 0.00 | 0.00 | 0.00 | 89 | 1009.8 |
| 20260510042604 | 23 | 27 | 8.0 | 20.9 | 0.00 | 0.00 | 0.00 | 89 | 1009.8 |
| 20260510042504 | 23 | 17 | 8.0 | 20.9 | 0.00 | 0.00 | 0.00 | 89 | 1009.8 |
| 20260510042402 | 23 | 31 | 9.7 | 20.9 | 0.00 | 0.00 | 0.00 | 88 | 1009.7 |
| 20260510042305 | 23 | 27 | 9.7 | 20.9 | 0.00 | 0.00 | 0.00 | 88 | 1009.8 |
| 20260510042204 | 23 | 21 | 9.7 | 20.9 | 0.00 | 0.00 | 0.00 | 88 | 1009.8 |
| 20260510042103 | 23 | 30 | 9.7 | 20.9 | 0.00 | 0.00 | 0.00 | 88 | 1009.8 |
| 20260510042005 | 23 | 30 | 12.9 | 20.9 | 0.00 | 0.00 | 0.00 | 88 | 1009.8 |
| 20260510041903 | 23 | 30 | 16.1 | 20.9 | 0.00 | 0.00 | 0.00 | 88 | 1009.8 |
| 20260510041802 | 23 | 30 | 12.9 | 20.9 | 0.00 | 0.00 | 0.00 | 88 | 1009.8 |
| 20260510041701 | 23 | 30 | 9.7 | 19.3 | 0.00 | 0.00 | 0.00 | 88 | 1009.8 |
| 20260510041601 | 23 | 34 | 11.3 | 19.3 | 0.00 | 0.00 | 0.00 | 88 | 1009.8 |
| 20260510041504 | 23 | 30 | 14.5 | 19.3 | 0.00 | 0.00 | 0.00 | 87 | 1009.8 |
| 20260510041402 | 23 | 31 | 14.5 | 19.3 | 0.00 | 0.00 | 0.00 | 87 | 1009.9 |
| 20260510041302 | 23 | 32 | 14.5 | 19.3 | 0.00 | 0.00 | 0.00 | 87 | 1009.8 |
| 20260510041203 | 23 | 30 | 12.9 | 17.7 | 0.00 | 0.00 | 0.00 | 87 | 1009.8 |
| 20260510041102 | 23 | 35 | 11.3 | 17.7 | 0.00 | 0.00 | 0.00 | 87 | 1009.8 |
| 20260510041004 | 23 | 38 | 8.0 | 17.7 | 0.00 | 0.00 | 0.00 | 87 | 1009.9 |
| 20260510040902 | 23 | 31 | 8.0 | 17.7 | 0.00 | 0.00 | 0.00 | 87 | 1009.9 |
| 20260510040802 | 23 | 21 | 9.7 | 17.7 | 0.00 | 0.00 | 0.00 | 87 | 1010.0 |
| 20260510040705 | 23 | 25 | 11.3 | 17.7 | 0.00 | 0.00 | 0.00 | 87 | 1010.0 |
| 20260510040603 | 23 | 30 | 9.7 | 19.3 | 0.00 | 0.00 | 0.00 | 87 | 1010.0 |
| 20260510040505 | 23 | 24 | 8.0 | 19.3 | 0.00 | 0.00 | 0.00 | 87 | 1010.0 |
| 20260510040403 | 23 | 23 | 11.3 | 19.3 | 0.00 | 0.00 | 0.00 | 87 | 1010.0 |
| 20260510040303 | 23 | 27 | 9.7 | 19.3 | 0.00 | 0.00 | 0.00 | 87 | 1010.0 |
| 20260510040202 | 23 | 24 | 6.4 | 19.3 | 0.00 | 0.00 | 0.00 | 87 | 1009.9 |
| 20260510040004 | 23 | 31 | 9.7 | 19.3 | 0.00 | 0.00 | 0.00 | 87 | 1009.9 |
| 20260510035902 | 23 | 21 | 11.3 | 19.3 | 0.00 | 0.00 | 0.00 | 87 | 1009.9 |
| 20260510035804 | 23 | 21 | 14.5 | 19.3 | 0.00 | 0.00 | 0.00 | 87 | 1009.9 |
| 20260510035702 | 23 | 30 | 12.9 | 19.3 | 0.00 | 0.00 | 0.00 | 86 | 1009.9 |
| 20260510035601 | 23 | 24 | 9.7 | 17.7 | 0.00 | 0.00 | 0.00 | 86 | 1010.0 |
| 20260510035501 | 23 | 23 | 9.7 | 17.7 | 0.00 | 0.00 | 0.00 | 86 | 1009.9 |
| 20260510035358 | 23 | 30 | 9.7 | 17.7 | 0.00 | 0.00 | 0.00 | 86 | 1010.0 |
| 20260510035258 | 23 | 27 | 11.3 | 17.7 | 0.00 | 0.00 | 0.00 | 86 | 1010.0 |
| 20260510035155 | 23 | 32 | 11.3 | 17.7 | 0.00 | 0.00 | 0.00 | 86 | 1010.0 |
| 20260510035055 | 23 | 25 | 9.7 | 16.1 | 0.00 | 0.00 | 0.00 | 86 | 1010.0 |
| 20260510034953 | 23 | 21 | 9.7 | 16.1 | 0.00 | 0.00 | 0.00 | 86 | 1010.0 |
| 20260510034853 | 23 | 31 | 8.0 | 16.1 | 0.00 | 0.00 | 0.00 | 86 | 1010.0 |
| 20260510034749 | 23 | 21 | 8.0 | 16.1 | 0.00 | 0.00 | 0.00 | 86 | 1010.0 |
| 20260510034647 | 23 | 20 | 9.7 | 16.1 | 0.00 | 0.00 | 0.00 | 86 | 1010.0 |
| 20260510034547 | 23 | 34 | 9.7 | 16.1 | 0.00 | 0.00 | 0.00 | 85 | 1010.0 |
| 20260510034445 | 23 | 20 | 9.7 | 16.1 | 0.00 | 0.00 | 0.00 | 85 | 1010.0 |
| 20260510034343 | 23 | 30 | 9.7 | 16.1 | 0.00 | 0.00 | 0.00 | 85 | 1010.0 |
| 20260510034242 | 23 | 27 | 6.4 | 16.1 | 0.00 | 0.00 | 0.00 | 85 | 1010.0 |
| 20260510034141 | 23 | 23 | 4.8 | 16.1 | 0.00 | 0.00 | 0.00 | 85 | 1009.9 |
| 20260510034037 | 23 | 30 | 4.8 | 16.1 | 0.00 | 0.00 | 0.00 | 85 | 1009.8 |
| 20260510033936 | 23 | 27 | 6.4 | 17.7 | 0.00 | 0.00 | 0.00 | 85 | 1009.8 |
| 20260510033837 | 23 | 31 | 8.0 | 19.3 | 0.00 | 0.00 | 0.00 | 85 | 1009.7 |
| 20260510033735 | 23 | 32 | 9.7 | 19.3 | 0.00 | 0.00 | 0.00 | 84 | 1009.6 |
| 20260510033634 | 23 | 34 | 11.3 | 19.3 | 0.00 | 0.00 | 0.00 | 84 | 1009.6 |
| 20260510033536 | 23 | 32 | 12.9 | 19.3 | 0.00 | 0.00 | 0.00 | 84 | 1009.6 |
| 20260510033434 | 23 | 34 | 11.3 | 19.3 | 0.00 | 0.00 | 0.00 | 84 | 1009.7 |
| 20260510033334 | 23 | 31 | 9.7 | 19.3 | 0.00 | 0.00 | 0.00 | 84 | 1009.6 |
| 20260510033235 | 23 | 28 | 11.3 | 19.3 | 0.00 | 0.00 | 0.00 | 84 | 1009.6 |
| 20260510033135 | 23 | 38 | 12.9 | 19.3 | 0.00 | 0.00 | 0.00 | 84 | 1009.6 |
| 20260510033034 | 23 | 31 | 11.3 | 19.3 | 0.00 | 0.00 | 0.00 | 84 | 1009.6 |
| 20260510032934 | 23 | 34 | 12.9 | 19.3 | 0.00 | 0.00 | 0.00 | 83 | 1009.6 |
| 20260510032836 | 23 | 28 | 14.5 | 17.7 | 0.00 | 0.00 | 0.00 | 83 | 1009.7 |
| 20260510032734 | 23 | 37 | 12.9 | 17.7 | 0.00 | 0.00 | 0.00 | 83 | 1009.8 |
| 20260510032634 | 23 | 25 | 11.3 | 17.7 | 0.00 | 0.00 | 0.00 | 83 | 1009.8 |
| 20260510032536 | 23 | 27 | 9.7 | 17.7 | 0.00 | 0.00 | 0.00 | 83 | 1009.8 |
| 20260510032434 | 23 | 34 | 12.9 | 19.3 | 0.00 | 0.00 | 0.00 | 83 | 1009.8 |
| 20260510032334 | 23 | 27 | 11.3 | 19.3 | 0.00 | 0.00 | 0.00 | 83 | 1009.8 |
| 20260510032235 | 23 | 28 | 9.7 | 19.3 | 0.00 | 0.00 | 0.00 | 82 | 1009.8 |
| 20260510032134 | 23 | 24 | 9.7 | 19.3 | 0.00 | 0.00 | 0.00 | 82 | 1009.9 |
| 20260510032035 | 23 | 27 | 9.7 | 19.3 | 0.00 | 0.00 | 0.00 | 82 | 1009.9 |
| 20260510031934 | 23 | 31 | 9.7 | 20.9 | 0.00 | 0.00 | 0.00 | 82 | 1010.0 |
| 20260510031835 | 23 | 27 | 9.7 | 20.9 | 0.00 | 0.00 | 0.00 | 82 | 1010.0 |
| 20260510031734 | 23 | 27 | 11.3 | 20.9 | 0.00 | 0.00 | 0.00 | 82 | 1010.0 |
| 20260510031634 | 23 | 30 | 12.9 | 22.5 | 0.00 | 0.00 | 0.00 | 82 | 1010.0 |
| 20260510031534 | 23 | 31 | 9.7 | 22.5 | 0.00 | 0.00 | 0.00 | 82 | 1010.1 |
| 20260510031434 | 23 | 30 | 9.7 | 22.5 | 0.00 | 0.00 | 0.00 | 82 | 1010.2 |
| 20260510031335 | 23 | 30 | 11.3 | 22.5 | 0.00 | 0.00 | 0.00 | 82 | 1010.1 |
| 20260510031234 | 23 | 28 | 11.3 | 22.5 | 0.00 | 0.00 | 0.00 | 82 | 1010.2 |
| 20260510031136 | 23 | 25 | 14.5 | 22.5 | 0.00 | 0.00 | 0.00 | 81 | 1010.2 |
| 20260510031034 | 23 | 30 | 14.5 | 22.5 | 0.00 | 0.00 | 0.00 | 81 | 1010.2 |
| 20260510030935 | 23 | 28 | 12.9 | 22.5 | 0.00 | 0.00 | 0.00 | 81 | 1010.3 |
| 20260510030835 | 23 | 21 | 14.5 | 27.4 | 0.00 | 0.00 | 0.00 | 81 | 1010.3 |
| 20260510030735 | 24 | 27 | 12.9 | 29.0 | 0.00 | 0.00 | 0.00 | 81 | 1010.4 |
| 20260510030634 | 24 | 23 | 12.9 | 29.0 | 0.00 | 0.00 | 0.00 | 81 | 1010.3 |
| 20260510030534 | 24 | 25 | 12.9 | 29.0 | 0.00 | 0.00 | 0.00 | 80 | 1010.2 |
| 20260510030435 | 24 | 23 | 12.9 | 29.0 | 0.00 | 0.00 | 0.00 | 80 | 1010.2 |
| 20260510030333 | 24 | 30 | 11.3 | 29.0 | 0.00 | 0.00 | 0.00 | 80 | 1010.2 |
| 20260510030233 | 23 | 20 | 9.7 | 29.0 | 0.00 | 0.00 | 0.00 | 80 | 1010.1 |
| 20260510030135 | 23 | 30 | 12.9 | 29.0 | 0.00 | 0.00 | 0.00 | 80 | 1010.0 |
| 20260510030033 | 24 | 27 | 16.1 | 29.0 | 0.00 | 0.00 | 0.00 | 80 | 1010.0 |
| 20260510025934 | 23 | 35 | 17.7 | 29.0 | 0.00 | 0.00 | 0.00 | 79 | 1010.0 |
| 20260510025833 | 23 | 27 | 17.7 | 29.0 | 0.00 | 0.00 | 0.00 | 79 | 1009.9 |
| 20260510025735 | 23 | 28 | 17.7 | 30.6 | 0.00 | 0.00 | 0.00 | 79 | 1009.9 |
| 20260510025633 | 23 | 39 | 14.5 | 30.6 | 0.00 | 0.00 | 0.00 | 79 | 1009.9 |
| 20260510025533 | 23 | 28 | 14.5 | 30.6 | 0.00 | 0.00 | 0.00 | 79 | 1009.6 |
| 20260510025435 | 23 | 32 | 17.7 | 30.6 | 0.00 | 0.00 | 0.00 | 79 | 1009.6 |
| 20260510025333 | 24 | 93 | 16.1 | 30.6 | 0.00 | 0.00 | 0.00 | 79 | 1009.7 |
| 20260510025233 | 24 | 92 | 16.1 | 30.6 | 0.00 | 0.00 | 0.00 | 79 | 1009.7 |
| 20260510025133 | 24 | 96 | 19.3 | 30.6 | 0.00 | 0.00 | 0.00 | 79 | 1009.7 |
| 20260510025034 | 24 | 100 | 20.9 | 32.2 | 0.00 | 0.00 | 0.00 | 79 | 1009.7 |
| 20260510024933 | 24 | 73 | 20.9 | 32.2 | 0.00 | 0.00 | 0.00 | 79 | 1009.7 |
| 20260510024834 | 24 | 114 | 19.3 | 32.2 | 0.00 | 0.00 | 0.00 | 79 | 1009.7 |
| 20260510024734 | 24 | 89 | 17.7 | 33.8 | 0.00 | 0.00 | 0.00 | 79 | 1009.8 |
| 20260510024633 | 24 | 69 | 19.3 | 33.8 | 0.00 | 0.00 | 0.00 | 79 | 1009.8 |
| 20260510024533 | 24 | 78 | 19.3 | 33.8 | 0.00 | 0.00 | 0.00 | 79 | 1009.8 |
| 20260510024433 | 24 | 106 | 19.3 | 33.8 | 0.00 | 0.00 | 0.00 | 79 | 1009.8 |
| 20260510024333 | 24 | 75 | 20.9 | 33.8 | 0.00 | 0.00 | 0.00 | 80 | 1009.7 |
| 20260510024233 | 24 | 92 | 20.9 | 33.8 | 0.00 | 0.00 | 0.00 | 80 | 1009.8 |
| 20260510024133 | 24 | 99 | 20.9 | 41.8 | 0.00 | 0.00 | 0.00 | 80 | 1009.7 |
| 20260510024034 | 24 | 87 | 17.7 | 41.8 | 0.00 | 0.00 | 0.00 | 80 | 1009.7 |
| 20260510023933 | 24 | 92 | 20.9 | 41.8 | 0.00 | 0.00 | 0.00 | 80 | 1009.7 |
| 20260510023833 | 24 | 113 | 22.5 | 41.8 | 0.00 | 0.00 | 0.00 | 81 | 1009.6 |
| 20260510023733 | 25 | 102 | 20.9 | 41.8 | 0.00 | 0.00 | 0.00 | 81 | 1009.6 |
| 20260510023634 | 25 | 94 | 22.5 | 41.8 | 0.00 | 0.00 | 0.00 | 81 | 1009.5 |
| 20260510023533 | 25 | 85 | 22.5 | 41.8 | 0.00 | 0.00 | 0.00 | 82 | 1009.6 |
| 20260510023433 | 25 | 104 | 20.9 | 41.8 | 0.00 | 0.00 | 0.00 | 82 | 1009.6 |
| 20260510023334 | 25 | 89 | 22.5 | 41.8 | 0.00 | 0.00 | 0.00 | 82 | 1009.6 |
| 20260510023234 | 25 | 79 | 24.1 | 41.8 | 0.00 | 0.00 | 0.00 | 83 | 1009.7 |
| 20260510023133 | 25 | 85 | 24.1 | 41.8 | 0.00 | 0.00 | 0.00 | 84 | 1009.6 |
| 20260510023034 | 25 | 86 | 24.1 | 41.8 | 0.00 | 0.00 | 0.00 | 84 | 1009.6 |
| 20260510022934 | 25 | 93 | 24.1 | 41.8 | 0.00 | 0.00 | 0.00 | 85 | 1009.5 |
| 20260510022833 | 25 | 92 | 20.9 | 41.8 | 0.00 | 0.00 | 0.00 | 85 | 1009.5 |
| 20260510022733 | 26 | 123 | 22.5 | 41.8 | 0.00 | 0.00 | 0.00 | 85 | 1009.3 |
| 20260510022634 | 26 | 106 | 24.1 | 41.8 | 0.00 | 0.00 | 0.00 | 85 | 1009.3 |
| 20260510022533 | 26 | 103 | 19.3 | 45.1 | 0.00 | 0.00 | 0.00 | 86 | 1009.3 |
| 20260510022432 | 26 | 86 | 17.7 | 45.1 | 0.00 | 0.00 | 0.00 | 86 | 1009.2 |
| 20260510022334 | 26 | 80 | 17.7 | 45.1 | 0.00 | 0.00 | 0.00 | 86 | 1009.1 |
| 20260510022233 | 26 | 86 | 19.3 | 45.1 | 0.00 | 0.00 | 0.00 | 86 | 1009.1 |
| 20260510022133 | 26 | 92 | 20.9 | 45.1 | 0.00 | 0.00 | 0.00 | 86 | 1009.1 |
| 20260510022033 | 26 | 99 | 24.1 | 45.1 | 0.00 | 0.00 | 0.00 | 86 | 1009.1 |
| 20260510021932 | 26 | 104 | 25.7 | 45.1 | 0.00 | 0.00 | 0.00 | 86 | 1009.1 |
| 20260510021832 | 26 | 111 | 24.1 | 45.1 | 0.00 | 0.00 | 0.00 | 86 | 1009.0 |
| 20260510021732 | 26 | 127 | 27.4 | 45.1 | 0.00 | 0.00 | 0.00 | 85 | 1009.0 |
| 20260510021633 | 26 | 107 | 29.0 | 45.1 | 0.00 | 0.00 | 0.00 | 85 | 1009.0 |
| 20260510021532 | 26 | 110 | 20.9 | 37.0 | 0.00 | 0.00 | 0.00 | 85 | 1008.9 |
| 20260510021432 | 26 | 114 | 19.3 | 37.0 | 0.00 | 0.00 | 0.00 | 85 | 1008.9 |
| 20260510021333 | 26 | 90 | 17.7 | 37.0 | 0.00 | 0.00 | 0.00 | 85 | 1008.9 |
| 20260510021233 | 27 | 114 | 19.3 | 37.0 | 0.00 | 0.00 | 0.00 | 85 | 1008.9 |
| 20260510021132 | 27 | 130 | 20.9 | 37.0 | 0.00 | 0.00 | 0.00 | 85 | 1008.9 |
| 20260510021032 | 27 | 103 | 22.5 | 37.0 | 0.00 | 0.00 | 0.00 | 84 | 1008.8 |
| 20260510020931 | 27 | 120 | 22.5 | 37.0 | 0.00 | 0.00 | 0.00 | 84 | 1008.8 |
| 20260510020832 | 27 | 107 | 22.5 | 33.8 | 0.00 | 0.00 | 0.00 | 84 | 1008.7 |
| 20260510020731 | 27 | 114 | 24.1 | 33.8 | 0.00 | 0.00 | 0.00 | 84 | 1008.8 |
| 20260510020630 | 27 | 123 | 22.5 | 33.8 | 0.00 | 0.00 | 0.00 | 83 | 1008.7 |
| 20260510020528 | 27 | 87 | 17.7 | 27.4 | 0.00 | 0.00 | 0.00 | 83 | 1008.7 |
| 20260510020425 | 27 | 120 | 16.1 | 27.4 | 0.00 | 0.00 | 0.00 | 83 | 1008.6 |
| 20260510020325 | 27 | 110 | 17.7 | 27.4 | 0.00 | 0.00 | 0.00 | 82 | 1008.5 |
| 20260510020225 | 27 | 137 | 19.3 | 27.4 | 0.00 | 0.00 | 0.00 | 82 | 1008.5 |
| 20260510020124 | 27 | 116 | 16.1 | 27.4 | 0.00 | 0.00 | 0.00 | 81 | 1008.4 |
| 20260510020025 | 27 | 128 | 16.1 | 27.4 | 0.00 | 0.00 | 0.00 | 81 | 1008.4 |
| 20260510015919 | 27 | 154 | 16.1 | 27.4 | 0.00 | 0.00 | 0.00 | 81 | 1008.3 |
| 20260510015816 | 27 | 118 | 16.1 | 27.4 | 0.00 | 0.00 | 0.00 | 80 | 1008.3 |
| 20260510015716 | 27 | 121 | 19.3 | 27.4 | 0.00 | 0.00 | 0.00 | 80 | 1008.2 |
| 20260510015615 | 27 | 94 | 17.7 | 27.4 | 0.00 | 0.00 | 0.00 | 79 | 1008.3 |
| 20260510015513 | 27 | 102 | 14.5 | 25.7 | 0.00 | 0.00 | 0.00 | 79 | 1008.2 |
| 20260510015411 | 27 | 89 | 14.5 | 25.7 | 0.00 | 0.00 | 0.00 | 78 | 1008.1 |
| 20260510015310 | 27 | 111 | 17.7 | 25.7 | 0.00 | 0.00 | 0.00 | 78 | 1008.2 |
| 20260510015208 | 27 | 97 | 17.7 | 24.1 | 0.00 | 0.00 | 0.00 | 77 | 1008.1 |
| 20260510015107 | 27 | 100 | 16.1 | 22.5 | 0.00 | 0.00 | 0.00 | 75 | 1008.1 |
| 20260510015007 | 27 | 102 | 9.7 | 19.3 | 0.00 | 0.00 | 0.00 | 74 | 1008.1 |
| 20260510014904 | 27 | 152 | 6.4 | 11.3 | 0.00 | 0.00 | 0.00 | 71 | 1008.1 |
| 20260510014802 | 27 | 71 | 4.8 | 11.3 | 0.00 | 0.00 | 0.00 | 69 | 1008.0 |
| 20260510014701 | 27 | 296 | 1.6 | 4.8 | 0.00 | 0.00 | 0.00 | 69 | 1007.8 |
| 20260510014602 | 27 | 296 | 1.6 | 4.8 | 0.00 | 0.00 | 0.00 | 69 | 1007.8 |
| 20260510014502 | 27 | 296 | 1.6 | 4.8 | 0.00 | 0.00 | 0.00 | 70 | 1007.8 |
| 20260510014403 | 27 | 296 | 3.2 | 4.8 | 0.00 | 0.00 | 0.00 | 70 | 1007.7 |
| 20260510014302 | 27 | 296 | 3.2 | 4.8 | 0.00 | 0.00 | 0.00 | 70 | 1007.7 |
| 20260510014204 | 27 | 295 | 3.2 | 4.8 | 0.00 | 0.00 | 0.00 | 70 | 1007.6 |
| 20260510014104 | 26 | 279 | 3.2 | 4.8 | 0.00 | 0.00 | 0.00 | 70 | 1007.7 |
| 20260510014000 | 26 | 279 | 3.2 | 3.2 | 0.00 | 0.00 | 0.00 | 71 | 1007.6 |
| 20260510013900 | 27 | 144 | 1.6 | 3.2 | 0.00 | 0.00 | 0.00 | 70 | 1007.7 |
| 20260510013758 | 27 | 144 | 1.6 | 3.2 | 0.00 | 0.00 | 0.00 | 70 | 1007.6 |
| 20260510013656 | 27 | 144 | 1.6 | 3.2 | 0.00 | 0.00 | 0.00 | 69 | 1007.5 |
| 20260510013556 | 27 | 144 | 0.0 | 3.2 | 0.00 | 0.00 | 0.00 | 69 | 1007.5 |
| 20260510013454 | 27 | 144 | 0.0 | 3.2 | 0.00 | 0.00 | 0.00 | 67 | 1007.4 |
| 20260510013353 | 27 | 144 | 0.0 | 3.2 | 0.00 | 0.00 | 0.00 | 67 | 1007.4 |
| 20260510013251 | 27 | 144 | 0.0 | 3.2 | 0.00 | 0.00 | 0.00 | 67 | 1007.3 |
| 20260510013149 | 27 | 144 | 0.0 | 4.8 | 0.00 | 0.00 | 0.00 | 67 | 1007.3 |
| 20260510013048 | 27 | 144 | 1.6 | 4.8 | 0.00 | 0.00 | 0.00 | 67 | 1007.3 |
| 20260510012946 | 27 | 144 | 0.0 | 4.8 | 0.00 | 0.00 | 0.00 | 66 | 1007.3 |
| 20260510012843 | 27 | 144 | 1.6 | 4.8 | 0.00 | 0.00 | 0.00 | 66 | 1007.3 |
| 20260510012742 | 27 | 65 | 1.6 | 4.8 | 0.00 | 0.00 | 0.00 | 66 | 1007.3 |
| 20260510012642 | 27 | 66 | 1.6 | 6.4 | 0.00 | 0.00 | 0.00 | 66 | 1007.2 |
| 20260510012540 | 27 | 66 | 1.6 | 6.4 | 0.00 | 0.00 | 0.00 | 66 | 1007.2 |
| 20260510012438 | 27 | 66 | 3.2 | 6.4 | 0.00 | 0.00 | 0.00 | 66 | 1007.1 |
| 20260510012334 | 27 | 66 | 3.2 | 6.4 | 0.00 | 0.00 | 0.00 | 66 | 1007.2 |
| 20260510012232 | 27 | 66 | 3.2 | 6.4 | 0.00 | 0.00 | 0.00 | 66 | 1007.1 |
| 20260510012134 | 27 | 68 | 3.2 | 6.4 | 0.00 | 0.00 | 0.00 | 65 | 1007.0 |
| 20260510012033 | 27 | 69 | 3.2 | 6.4 | 0.00 | 0.00 | 0.00 | 65 | 1007.1 |
| 20260510011932 | 27 | 69 | 3.2 | 6.4 | 0.00 | 0.00 | 0.00 | 65 | 1007.1 |
| 20260510011832 | 27 | 71 | 3.2 | 6.4 | 0.00 | 0.00 | 0.00 | 65 | 1007.1 |
| 20260510011733 | 27 | 56 | 1.6 | 6.4 | 0.00 | 0.00 | 0.00 | 65 | 1007.0 |
| 20260510011632 | 27 | 51 | 1.6 | 6.4 | 0.00 | 0.00 | 0.00 | 65 | 1007.0 |
| 20260510011533 | 27 | 103 | 1.6 | 6.4 | 0.00 | 0.00 | 0.00 | 65 | 1007.1 |
| 20260510011431 | 27 | 104 | 3.2 | 6.4 | 0.00 | 0.00 | 0.00 | 64 | 1007.0 |
| 20260510011332 | 27 | 106 | 3.2 | 6.4 | 0.00 | 0.00 | 0.00 | 63 | 1007.0 |
| 20260510011232 | 27 | 104 | 4.8 | 6.4 | 0.00 | 0.00 | 0.00 | 63 | 1006.9 |
| 20260510011132 | 27 | 103 | 4.8 | 6.4 | 0.00 | 0.00 | 0.00 | 63 | 1006.8 |
| 20260510011032 | 27 | 111 | 4.8 | 6.4 | 0.00 | 0.00 | 0.00 | 63 | 1006.9 |
| 20260510010931 | 27 | 107 | 4.8 | 6.4 | 0.00 | 0.00 | 0.00 | 63 | 1006.8 |
| 20260510010831 | 27 | 103 | 4.8 | 6.4 | 0.00 | 0.00 | 0.00 | 63 | 1006.7 |
| 20260510010730 | 27 | 103 | 4.8 | 6.4 | 0.00 | 0.00 | 0.00 | 63 | 1006.8 |
| 20260510010632 | 27 | 102 | 3.2 | 6.4 | 0.00 | 0.00 | 0.00 | 63 | 1006.7 |
| 20260510010532 | 27 | 102 | 3.2 | 9.7 | 0.00 | 0.00 | 0.00 | 63 | 1006.8 |
| 20260510010432 | 27 | 103 | 1.6 | 9.7 | 0.00 | 0.00 | 0.00 | 63 | 1006.8 |
| 20260510010331 | 27 | 103 | 3.2 | 9.7 | 0.00 | 0.00 | 0.00 | 63 | 1006.8 |
| 20260510010232 | 27 | 102 | 1.6 | 9.7 | 0.00 | 0.00 | 0.00 | 62 | 1006.8 |
| 20260510010131 | 27 | 102 | 1.6 | 9.7 | 0.00 | 0.00 | 0.00 | 62 | 1006.8 |
| 20260510010031 | 27 | 102 | 3.2 | 9.7 | 0.00 | 0.00 | 0.00 | 62 | 1006.9 |
| 20260510005933 | 27 | 138 | 3.2 | 9.7 | 0.00 | 0.00 | 0.00 | 62 | 1006.9 |
| 20260510005832 | 27 | 149 | 4.8 | 9.7 | 0.00 | 0.00 | 0.00 | 62 | 1006.9 |
| 20260510005731 | 27 | 161 | 6.4 | 9.7 | 0.00 | 0.00 | 0.00 | 62 | 1006.8 |
| 20260510005632 | 27 | 100 | 4.8 | 9.7 | 0.00 | 0.00 | 0.00 | 61 | 1006.8 |
| 20260510005531 | 27 | 86 | 3.2 | 9.7 | 0.00 | 0.00 | 0.00 | 61 | 1006.7 |
| 20260510005431 | 27 | 96 | 4.8 | 16.1 | 0.00 | 0.00 | 0.00 | 61 | 1006.6 |
| 20260510005332 | 27 | 120 | 6.4 | 16.1 | 0.00 | 0.00 | 0.00 | 61 | 1006.6 |
| 20260510005232 | 27 | 93 | 6.4 | 16.1 | 0.00 | 0.00 | 0.00 | 61 | 1006.6 |
| 20260510005131 | 27 | 103 | 4.8 | 16.1 | 0.00 | 0.00 | 0.00 | 61 | 1006.5 |
| 20260510005030 | 27 | 97 | 4.8 | 16.1 | 0.00 | 0.00 | 0.00 | 61 | 1006.5 |
| 20260510004928 | 27 | 137 | 4.8 | 16.1 | 0.00 | 0.00 | 0.00 | 61 | 1006.6 |
| 20260510004828 | 27 | 210 | 4.8 | 19.3 | 0.00 | 0.00 | 0.00 | 61 | 1006.5 |
| 20260510004725 | 27 | 97 | 6.4 | 19.3 | 0.00 | 0.00 | 0.00 | 61 | 1006.6 |
| 20260510004624 | 27 | 250 | 8.0 | 19.3 | 0.00 | 0.00 | 0.00 | 61 | 1006.7 |
| 20260510004522 | 27 | 128 | 8.0 | 19.3 | 0.00 | 0.00 | 0.00 | 62 | 1006.6 |
| 20260510004422 | 27 | 120 | 6.4 | 19.3 | 0.00 | 0.00 | 0.00 | 62 | 1006.6 |
| 20260510004319 | 27 | 141 | 6.4 | 19.3 | 0.00 | 0.00 | 0.00 | 63 | 1006.6 |
| 20260510004218 | 27 | 203 | 9.7 | 19.3 | 0.00 | 0.00 | 0.00 | 63 | 1006.6 |
| 20260510004117 | 27 | 164 | 9.7 | 19.3 | 0.00 | 0.00 | 0.00 | 63 | 1006.5 |
| 20260510004016 | 27 | 212 | 11.3 | 25.7 | 0.00 | 0.00 | 0.00 | 63 | 1006.4 |
| 20260510003908 | 28 | 173 | 11.3 | 25.7 | 0.00 | 0.00 | 0.00 | 64 | 1006.4 |
| 20260510003807 | 28 | 214 | 9.7 | 25.7 | 0.00 | 0.00 | 0.00 | 63 | 1006.4 |
| 20260510003706 | 28 | 173 | 9.7 | 25.7 | 0.00 | 0.00 | 0.00 | 63 | 1006.4 |
| 20260510003602 | 28 | 154 | 9.7 | 25.7 | 0.00 | 0.00 | 0.00 | 63 | 1006.4 |
| 20260510003502 | 28 | 207 | 9.7 | 25.7 | 0.00 | 0.00 | 0.00 | 63 | 1006.4 |
| 20260510003403 | 28 | 185 | 6.4 | 25.7 | 0.00 | 0.00 | 0.00 | 62 | 1006.4 |
| 20260510003303 | 28 | 128 | 6.4 | 25.7 | 0.00 | 0.00 | 0.00 | 62 | 1006.4 |
| 20260510003203 | 28 | 173 | 11.3 | 25.7 | 0.00 | 0.00 | 0.00 | 61 | 1006.4 |
| 20260510003103 | 28 | 161 | 12.9 | 25.7 | 0.00 | 0.00 | 0.00 | 61 | 1006.4 |
| 20260510003005 | 29 | 221 | 11.3 | 25.7 | 0.00 | 0.00 | 0.00 | 59 | 1006.5 |
| 20260510002903 | 29 | 141 | 9.7 | 25.7 | 0.00 | 0.00 | 0.00 | 57 | 1006.5 |
| 20260510002803 | 29 | 8 | 9.7 | 25.7 | 0.00 | 0.00 | 0.00 | 57 | 1006.6 |
| 20260510002702 | 29 | 161 | 9.7 | 27.4 | 0.00 | 0.00 | 0.00 | 56 | 1006.5 |
| 20260510002602 | 29 | 221 | 9.7 | 27.4 | 0.00 | 0.00 | 0.00 | 56 | 1006.6 |
| 20260510002502 | 29 | 206 | 8.0 | 27.4 | 0.00 | 0.00 | 0.00 | 56 | 1006.5 |
| 20260510002402 | 29 | 185 | 9.7 | 27.4 | 0.00 | 0.00 | 0.00 | 57 | 1006.6 |
| 20260510002306 | 29 | 203 | 11.3 | 27.4 | 0.00 | 0.00 | 0.00 | 57 | 1006.6 |
| 20260510002203 | 30 | 210 | 11.3 | 27.4 | 0.00 | 0.00 | 0.00 | 58 | 1006.6 |
| 20260510002103 | 30 | 192 | 11.3 | 27.4 | 0.00 | 0.00 | 0.00 | 59 | 1006.6 |
| 20260510002004 | 30 | 196 | 9.7 | 27.4 | 0.00 | 0.00 | 0.00 | 60 | 1006.6 |
| 20260510001903 | 30 | 200 | 12.9 | 27.4 | 0.00 | 0.00 | 0.00 | 61 | 1006.5 |
| 20260510001802 | 30 | 203 | 14.5 | 27.4 | 0.00 | 0.00 | 0.00 | 61 | 1006.5 |
| 20260510001701 | 30 | 254 | 12.9 | 24.1 | 0.00 | 0.00 | 0.00 | 64 | 1006.4 |
| 20260510001600 | 30 | 149 | 11.3 | 24.1 | 0.00 | 0.00 | 0.00 | 67 | 1006.3 |
| 20260510001459 | 30 | 196 | 8.0 | 16.1 | 0.00 | 0.00 | 0.00 | 69 | 1006.3 |
| 20260510001356 | 30 | 199 | 6.4 | 16.1 | 0.00 | 0.00 | 0.00 | 70 | 1006.3 |
| 20260510001255 | 30 | 188 | 6.4 | 16.1 | 0.00 | 0.00 | 0.00 | 69 | 1006.3 |
| 20260510001152 | 30 | 175 | 8.0 | 16.1 | 0.00 | 0.00 | 0.00 | 69 | 1006.3 |
| 20260510001050 | 30 | 111 | 8.0 | 16.1 | 0.00 | 0.00 | 0.00 | 69 | 1006.2 |
| 20260510000949 | 30 | 106 | 8.0 | 16.1 | 0.00 | 0.00 | 0.00 | 69 | 1006.2 |
| 20260510000847 | 30 | 104 | 8.0 | 16.1 | 0.00 | 0.00 | 0.00 | 69 | 1006.1 |
| 20260510000746 | 30 | 97 | 6.4 | 11.3 | 0.00 | 0.00 | 0.00 | 69 | 1006.1 |
| 20260510000645 | 30 | 127 | 6.4 | 11.3 | 0.00 | 0.00 | 0.00 | 70 | 1006.1 |
| 20260510000543 | 30 | 90 | 6.4 | 11.3 | 0.00 | 0.00 | 0.00 | 70 | 1006.1 |
| 20260510000441 | 30 | 83 | 6.4 | 11.3 | 0.00 | 0.00 | 0.00 | 70 | 1006.1 |
| 20260510000341 | 30 | 87 | 6.4 | 11.3 | 0.00 | 0.00 | 0.00 | 70 | 1006.2 |
| 20260510000241 | 30 | 86 | 4.8 | 11.3 | 0.00 | 0.00 | 0.00 | 70 | 1006.2 |
| 20260510000133 | 30 | 92 | 6.4 | 11.3 | 0.00 | 0.00 | 0.00 | 70 | 1006.2 |
| 20260510000035 | 30 | 89 | 6.4 | 11.3 | 0.00 | 0.00 | 0.00 | 70 | 1006.2 |
| 20260509235931 | 30 | 107 | 6.4 | 11.3 | 0.00 | 0.00 | 0.00 | 70 | 1006.2 |
| 20260509235832 | 30 | 96 | 6.4 | 11.3 | 0.00 | 0.00 | 0.00 | 70 | 1006.2 |
| 20260509235731 | 30 | 102 | 4.8 | 9.7 | 0.00 | 0.00 | 0.00 | 70 | 1006.1 |
| 20260509235631 | 30 | 73 | 3.2 | 9.7 | 0.00 | 0.00 | 0.00 | 70 | 1006.1 |
| 20260509235532 | 30 | 71 | 4.8 | 9.7 | 0.00 | 0.00 | 0.00 | 70 | 1006.0 |
| 20260509235431 | 30 | 71 | 6.4 | 9.7 | 0.00 | 0.00 | 0.00 | 70 | 1006.0 |
| 20260509235331 | 30 | 63 | 6.4 | 9.7 | 0.00 | 0.00 | 0.00 | 70 | 1006.0 |
| 20260509235231 | 30 | 66 | 8.0 | 9.7 | 0.00 | 0.00 | 0.00 | 70 | 1006.0 |
| 20260509235131 | 30 | 80 | 6.4 | 11.3 | 0.00 | 0.00 | 0.00 | 70 | 1006.0 |
| 20260509235031 | 30 | 62 | 6.4 | 11.3 | 0.00 | 0.00 | 0.00 | 70 | 1006.1 |
| 20260509234932 | 30 | 49 | 6.4 | 11.3 | 0.00 | 0.00 | 0.00 | 70 | 1006.2 |
| 20260509234832 | 30 | 65 | 4.8 | 11.3 | 0.00 | 0.00 | 0.00 | 69 | 1006.2 |
| 20260509234731 | 30 | 79 | 4.8 | 11.3 | 0.00 | 0.00 | 0.00 | 69 | 1006.2 |
| 20260509234631 | 30 | 47 | 4.8 | 11.3 | 0.00 | 0.00 | 0.00 | 69 | 1006.1 |
| 20260509234531 | 30 | 44 | 4.8 | 11.3 | 0.00 | 0.00 | 0.00 | 69 | 1006.0 |
| 20260509234431 | 30 | 42 | 4.8 | 11.3 | 0.00 | 0.00 | 0.00 | 69 | 1006.0 |
| 20260509234331 | 30 | 87 | 6.4 | 11.3 | 0.00 | 0.00 | 0.00 | 68 | 1005.9 |
| 20260509234231 | 30 | 87 | 8.0 | 11.3 | 0.00 | 0.00 | 0.00 | 68 | 1005.9 |
| 20260509234132 | 30 | 92 | 8.0 | 11.3 | 0.00 | 0.00 | 0.00 | 68 | 1005.8 |
| 20260509234031 | 30 | 85 | 6.4 | 11.3 | 0.00 | 0.00 | 0.00 | 69 | 1005.8 |
| 20260509233932 | 30 | 66 | 6.4 | 11.3 | 0.00 | 0.00 | 0.00 | 69 | 1005.8 |
| 20260509233832 | 30 | 66 | 6.4 | 11.3 | 0.00 | 0.00 | 0.00 | 69 | 1005.8 |
| 20260509233731 | 30 | 75 | 6.4 | 11.3 | 0.00 | 0.00 | 0.00 | 69 | 1005.8 |
| 20260509233631 | 30 | 72 | 6.4 | 11.3 | 0.00 | 0.00 | 0.00 | 69 | 1005.8 |
| 20260509233531 | 30 | 56 | 4.8 | 9.7 | 0.00 | 0.00 | 0.00 | 69 | 1005.9 |
| 20260509233432 | 30 | 39 | 4.8 | 9.7 | 0.00 | 0.00 | 0.00 | 69 | 1005.8 |
| 20260509233332 | 30 | 61 | 6.4 | 9.7 | 0.00 | 0.00 | 0.00 | 69 | 1006.0 |
| 20260509233231 | 30 | 69 | 6.4 | 9.7 | 0.00 | 0.00 | 0.00 | 69 | 1006.0 |
| 20260509233131 | 30 | 55 | 4.8 | 9.7 | 0.00 | 0.00 | 0.00 | 69 | 1006.0 |
| 20260509233031 | 30 | 54 | 4.8 | 9.7 | 0.00 | 0.00 | 0.00 | 70 | 1006.0 |
| 20260509232931 | 30 | 52 | 4.8 | 9.7 | 0.00 | 0.00 | 0.00 | 69 | 1006.0 |
| 20260509232831 | 30 | 52 | 4.8 | 9.7 | 0.00 | 0.00 | 0.00 | 69 | 1006.1 |
| 20260509232731 | 30 | 51 | 6.4 | 9.7 | 0.00 | 0.00 | 0.00 | 69 | 1006.1 |
| 20260509232631 | 30 | 48 | 6.4 | 9.7 | 0.00 | 0.00 | 0.00 | 69 | 1005.9 |
| 20260509232531 | 30 | 55 | 6.4 | 9.7 | 0.00 | 0.00 | 0.00 | 68 | 1006.1 |
| 20260509232432 | 30 | 39 | 6.4 | 8.0 | 0.00 | 0.00 | 0.00 | 68 | 1006.1 |
| 20260509232332 | 31 | 39 | 4.8 | 8.0 | 0.00 | 0.00 | 0.00 | 68 | 1006.1 |
| 20260509232230 | 31 | 51 | 4.8 | 9.7 | 0.00 | 0.00 | 0.00 | 67 | 1006.1 |
| 20260509232131 | 31 | 51 | 4.8 | 9.7 | 0.00 | 0.00 | 0.00 | 67 | 1006.1 |
| 20260509232032 | 31 | 51 | 4.8 | 9.7 | 0.00 | 0.00 | 0.00 | 67 | 1006.0 |
| 20260509231931 | 31 | 56 | 4.8 | 9.7 | 0.00 | 0.00 | 0.00 | 66 | 1006.0 |
| 20260509231830 | 31 | 54 | 4.8 | 9.7 | 0.00 | 0.00 | 0.00 | 66 | 1006.0 |
| 20260509231731 | 31 | 55 | 4.8 | 9.7 | 0.00 | 0.00 | 0.00 | 64 | 1006.0 |
| 20260509231631 | 31 | 63 | 4.8 | 9.7 | 0.00 | 0.00 | 0.00 | 65 | 1006.1 |
| 20260509231531 | 31 | 62 | 6.4 | 9.7 | 0.00 | 0.00 | 0.00 | 65 | 1006.1 |
| 20260509231434 | 31 | 63 | 8.0 | 9.7 | 0.00 | 0.00 | 0.00 | 65 | 1006.1 |
| 20260509231332 | 31 | 87 | 6.4 | 9.7 | 0.00 | 0.00 | 0.00 | 65 | 1006.1 |
| 20260509231232 | 31 | 54 | 4.8 | 8.0 | 0.00 | 0.00 | 0.00 | 65 | 1006.1 |
| 20260509231131 | 31 | 78 | 3.2 | 8.0 | 0.00 | 0.00 | 0.00 | 65 | 1006.1 |
| 20260509231032 | 31 | 69 | 4.8 | 8.0 | 0.00 | 0.00 | 0.00 | 65 | 1006.1 |
| 20260509230931 | 31 | 94 | 6.4 | 8.0 | 0.00 | 0.00 | 0.00 | 65 | 1006.1 |
| 20260509230832 | 31 | 76 | 4.8 | 8.0 | 0.00 | 0.00 | 0.00 | 65 | 1006.1 |
| 20260509230733 | 31 | 76 | 6.4 | 8.0 | 0.00 | 0.00 | 0.00 | 65 | 1006.0 |
| 20260509230632 | 31 | 75 | 6.4 | 8.0 | 0.00 | 0.00 | 0.00 | 64 | 1006.0 |
| 20260509230532 | 31 | 80 | 4.8 | 8.0 | 0.00 | 0.00 | 0.00 | 63 | 1006.0 |
| 20260509230432 | 31 | 80 | 6.4 | 8.0 | 0.00 | 0.00 | 0.00 | 63 | 1006.0 |
| 20260509230331 | 31 | 69 | 6.4 | 8.0 | 0.00 | 0.00 | 0.00 | 63 | 1005.9 |
| 20260509230231 | 31 | 86 | 6.4 | 8.0 | 0.00 | 0.00 | 0.00 | 63 | 1005.9 |
| 20260509230131 | 31 | 89 | 4.8 | 8.0 | 0.00 | 0.00 | 0.00 | 62 | 1005.9 |
| 20260509230032 | 31 | 107 | 4.8 | 8.0 | 0.00 | 0.00 | 0.00 | 62 | 1006.0 |
| 20260509225931 | 31 | 96 | 6.4 | 8.0 | 0.00 | 0.00 | 0.00 | 63 | 1005.8 |
| 20260509225832 | 31 | 121 | 6.4 | 8.0 | 0.00 | 0.00 | 0.00 | 62 | 1005.9 |
| 20260509225731 | 32 | 116 | 4.8 | 8.0 | 0.00 | 0.00 | 0.00 | 63 | 1005.8 |
| 20260509225631 | 32 | 96 | 3.2 | 8.0 | 0.00 | 0.00 | 0.00 | 62 | 1005.8 |
| 20260509225531 | 32 | 125 | 3.2 | 6.4 | 0.00 | 0.00 | 0.00 | 63 | 1005.9 |
| 20260509225431 | 31 | 118 | 3.2 | 6.4 | 0.00 | 0.00 | 0.00 | 63 | 1005.8 |
| 20260509225332 | 31 | 149 | 3.2 | 6.4 | 0.00 | 0.00 | 0.00 | 62 | 1005.9 |
| 20260509225231 | 31 | 110 | 1.6 | 4.8 | 0.00 | 0.00 | 0.00 | 62 | 1005.9 |
| 20260509225131 | 32 | 110 | 0.0 | 1.6 | 0.00 | 0.00 | 0.00 | 62 | 1005.9 |
| 20260509225032 | 32 | 104 | 0.0 | 1.6 | 0.00 | 0.00 | 0.00 | 63 | 1005.9 |
| 20260509224931 | 31 | 213 | 0.0 | 1.6 | 0.00 | 0.00 | 0.00 | 62 | 1005.9 |
| 20260509224831 | 31 | 147 | 0.0 | 1.6 | 0.00 | 0.00 | 0.00 | 63 | 1005.9 |
| 20260509224730 | 31 | 147 | 0.0 | 1.6 | 0.00 | 0.00 | 0.00 | 62 | 1005.9 |
| 20260509224632 | 31 | 173 | 0.0 | 3.2 | 0.00 | 0.00 | 0.00 | 62 | 1005.8 |
| 20260509224531 | 31 | 124 | 0.0 | 6.4 | 0.00 | 0.00 | 0.00 | 62 | 1005.9 |
| 20260509224431 | 31 | 124 | 0.0 | 6.4 | 0.00 | 0.00 | 0.00 | 62 | 1005.9 |
| 20260509224331 | 31 | 165 | 0.0 | 6.4 | 0.00 | 0.00 | 0.00 | 61 | 1005.9 |
| 20260509224231 | 31 | 154 | 0.0 | 6.4 | 0.00 | 0.00 | 0.00 | 62 | 1005.9 |
| 20260509224131 | 31 | 137 | 0.0 | 6.4 | 0.00 | 0.00 | 0.00 | 61 | 1005.9 |
| 20260509224032 | 31 | 123 | 0.0 | 6.4 | 0.00 | 0.00 | 0.00 | 61 | 1005.9 |
| 20260509223933 | 31 | 123 | 0.0 | 6.4 | 0.00 | 0.00 | 0.00 | 61 | 1005.9 |
| 20260509223832 | 32 | 120 | 1.6 | 6.4 | 0.00 | 0.00 | 0.00 | 62 | 1005.8 |
| 20260509223732 | 32 | 109 | 3.2 | 6.4 | 0.00 | 0.00 | 0.00 | 61 | 1005.8 |
| 20260509223633 | 32 | 109 | 3.2 | 6.4 | 0.00 | 0.00 | 0.00 | 62 | 1005.9 |
| 20260509223531 | 32 | 87 | 1.6 | 6.4 | 0.00 | 0.00 | 0.00 | 61 | 1005.9 |
| 20260509223431 | 32 | 10 | 1.6 | 3.2 | 0.00 | 0.00 | 0.00 | 60 | 1005.8 |
| 20260509223329 | 32 | 10 | 0.0 | 3.2 | 0.00 | 0.00 | 0.00 | 61 | 1005.8 |
| 20260509223228 | 32 | 10 | 0.0 | 3.2 | 0.00 | 0.00 | 0.00 | 61 | 1005.8 |
| 20260509223130 | 32 | 10 | 0.0 | 3.2 | 0.00 | 0.00 | 0.00 | 61 | 1005.8 |
| 20260509223028 | 32 | 10 | 1.6 | 3.2 | 0.00 | 0.03 | 0.00 | 60 | 1005.8 |
| 20260509222927 | 32 | 10 | 1.6 | 3.2 | 0.00 | 0.03 | 0.00 | 60 | 1005.8 |
| 20260509222827 | 32 | 10 | 1.6 | 3.2 | 0.00 | 0.03 | 0.00 | 60 | 1005.8 |
| 20260509222727 | 32 | 10 | 1.6 | 3.2 | 0.00 | 0.03 | 0.00 | 61 | 1005.8 |
| 20260509222629 | 32 | 10 | 1.6 | 3.2 | 0.00 | 0.03 | 0.00 | 60 | 1005.8 |
| 20260509222529 | 32 | 10 | 1.6 | 4.8 | 0.00 | 0.03 | 0.00 | 60 | 1005.8 |
| 20260509222427 | 32 | 10 | 0.0 | 4.8 | 0.00 | 0.03 | 0.00 | 60 | 1005.9 |
| 20260509222328 | 32 | 10 | 0.0 | 4.8 | 0.00 | 0.03 | 0.00 | 60 | 1005.8 |
| 20260509222227 | 32 | 10 | 0.0 | 6.4 | 0.00 | 0.03 | 0.00 | 60 | 1005.8 |
| 20260509222127 | 32 | 10 | 1.6 | 6.4 | 0.00 | 0.03 | 0.00 | 59 | 1005.8 |
| 20260509222028 | 32 | 10 | 0.0 | 6.4 | 0.00 | 0.03 | 0.00 | 59 | 1005.7 |
| 20260509221929 | 32 | 10 | 0.0 | 6.4 | 0.00 | 0.03 | 0.00 | 58 | 1005.7 |
| 20260509221827 | 32 | 10 | 1.6 | 6.4 | 0.00 | 0.03 | 0.00 | 58 | 1005.7 |
| 20260509221727 | 33 | 10 | 1.6 | 6.4 | 0.00 | 0.03 | 0.00 | 58 | 1005.7 |
| 20260509221628 | 33 | 10 | 1.6 | 9.7 | 0.00 | 0.03 | 0.00 | 58 | 1005.6 |
| 20260509221527 | 32 | 10 | 1.6 | 9.7 | 0.00 | 0.03 | 0.00 | 59 | 1005.7 |
| 20260509221427 | 32 | 10 | 3.2 | 9.7 | 0.00 | 0.03 | 0.00 | 58 | 1005.6 |
| 20260509221328 | 32 | 10 | 3.2 | 9.7 | 0.00 | 0.03 | 0.00 | 59 | 1005.7 |
| 20260509221227 | 32 | 11 | 1.6 | 9.7 | 0.00 | 0.03 | 0.00 | 59 | 1005.7 |
| 20260509221128 | 32 | 38 | 3.2 | 9.7 | 0.00 | 0.03 | 0.00 | 59 | 1005.7 |
| 20260509221028 | 32 | 38 | 3.2 | 9.7 | 0.00 | 0.03 | 0.00 | 59 | 1005.7 |
| 20260509220928 | 32 | 49 | 3.2 | 9.7 | 0.00 | 0.03 | 0.00 | 60 | 1005.7 |
| 20260509220828 | 32 | 49 | 6.4 | 9.7 | 0.00 | 0.03 | 0.00 | 59 | 1005.7 |
| 20260509220727 | 32 | 85 | 6.4 | 9.7 | 0.00 | 0.03 | 0.00 | 59 | 1005.7 |
| 20260509220630 | 32 | 52 | 3.2 | 8.0 | 0.00 | 0.03 | 0.00 | 59 | 1005.6 |
| 20260509220527 | 32 | 61 | 3.2 | 8.0 | 0.00 | 0.03 | 0.00 | 59 | 1005.7 |
| 20260509220428 | 32 | 61 | 1.6 | 8.0 | 0.00 | 0.03 | 0.00 | 59 | 1005.7 |
| 20260509220328 | 32 | 61 | 3.2 | 8.0 | 0.00 | 0.03 | 0.00 | 60 | 1005.7 |
| 20260509220227 | 32 | 59 | 4.8 | 8.0 | 0.00 | 0.03 | 0.00 | 59 | 1005.7 |
| 20260509220126 | 32 | 59 | 4.8 | 8.0 | 0.00 | 0.03 | 0.00 | 59 | 1005.7 |
| 20260509220027 | 32 | 79 | 3.2 | 6.4 | 0.00 | 0.03 | 0.00 | 58 | 1005.7 |
| 20260509215929 | 32 | 80 | 4.8 | 8.0 | 0.00 | 0.03 | 0.00 | 58 | 1005.7 |
| 20260509215827 | 33 | 83 | 3.2 | 8.0 | 0.00 | 0.03 | 0.00 | 58 | 1005.7 |
| 20260509215727 | 33 | 42 | 1.6 | 8.0 | 0.00 | 0.03 | 0.00 | 58 | 1005.7 |
| 20260509215628 | 32 | 42 | 1.6 | 8.0 | 0.00 | 0.03 | 0.00 | 59 | 1005.6 |
| 20260509215528 | 32 | 42 | 1.6 | 8.0 | 0.00 | 0.03 | 0.00 | 59 | 1005.6 |
| 20260509215427 | 32 | 92 | 3.2 | 8.0 | 0.00 | 0.03 | 0.00 | 58 | 1005.6 |
| 20260509215326 | 32 | 92 | 4.8 | 8.0 | 0.00 | 0.03 | 0.00 | 59 | 1005.6 |
| 20260509215229 | 32 | 59 | 4.8 | 8.0 | 0.00 | 0.03 | 0.00 | 58 | 1005.6 |
| 20260509215127 | 32 | 47 | 3.2 | 8.0 | 0.00 | 0.03 | 0.00 | 58 | 1005.7 |
| 20260509215027 | 32 | 39 | 4.8 | 8.0 | 0.00 | 0.03 | 0.00 | 58 | 1005.7 |
| 20260509214927 | 32 | 38 | 3.2 | 8.0 | 0.00 | 0.03 | 0.00 | 59 | 1005.6 |
| 20260509214827 | 32 | 80 | 1.6 | 6.4 | 0.00 | 0.03 | 0.00 | 58 | 1005.7 |
| 20260509214726 | 32 | 80 | 3.2 | 6.4 | 0.00 | 0.03 | 0.00 | 58 | 1005.7 |
| 20260509214626 | 32 | 80 | 3.2 | 6.4 | 0.00 | 0.03 | 0.00 | 58 | 1005.6 |
| 20260509214527 | 32 | 63 | 3.2 | 6.4 | 0.00 | 0.03 | 0.00 | 58 | 1005.7 |
| 20260509214428 | 32 | 54 | 3.2 | 6.4 | 0.00 | 0.03 | 0.00 | 60 | 1005.6 |
| 20260509214327 | 32 | 58 | 3.2 | 6.4 | 0.00 | 0.03 | 0.00 | 59 | 1005.6 |
| 20260509214227 | 32 | 37 | 3.2 | 6.4 | 0.00 | 0.03 | 0.00 | 60 | 1005.6 |
| 20260509214126 | 32 | 85 | 3.2 | 8.0 | 0.00 | 0.03 | 0.00 | 59 | 1005.6 |
| 20260509214026 | 32 | 3 | 3.2 | 8.0 | 0.00 | 0.03 | 0.00 | 60 | 1005.7 |
| 20260509213927 | 32 | 3 | 3.2 | 8.0 | 0.00 | 0.03 | 0.00 | 60 | 1005.6 |
| 20260509213828 | 32 | 3 | 3.2 | 8.0 | 0.00 | 0.03 | 0.00 | 59 | 1005.6 |
| 20260509213727 | 33 | 3 | 3.2 | 8.0 | 0.00 | 0.03 | 0.00 | 58 | 1005.7 |
| 20260509213626 | 33 | 20 | 4.8 | 8.0 | 0.00 | 0.03 | 0.00 | 58 | 1005.7 |
| 20260509213527 | 33 | 20 | 3.2 | 8.0 | 0.00 | 0.03 | 0.00 | 58 | 1005.7 |
| 20260509213426 | 33 | 45 | 1.6 | 8.0 | 0.00 | 0.03 | 0.00 | 59 | 1005.6 |
| 20260509213326 | 32 | 47 | 3.2 | 8.0 | 0.00 | 0.03 | 0.00 | 60 | 1005.7 |
| 20260509213226 | 32 | 47 | 4.8 | 8.0 | 0.00 | 0.03 | 0.00 | 59 | 1005.6 |
| 20260509213128 | 33 | 69 | 4.8 | 8.0 | 0.00 | 0.03 | 0.00 | 58 | 1005.7 |
| 20260509213027 | 33 | 32 | 3.2 | 8.0 | 0.00 | 0.03 | 0.00 | 59 | 1005.6 |
| 20260509212927 | 33 | 61 | 1.6 | 9.7 | 0.00 | 0.03 | 0.00 | 58 | 1005.6 |
| 20260509212828 | 33 | 6 | 1.6 | 9.7 | 0.00 | 0.03 | 0.00 | 58 | 1005.7 |
| 20260509212726 | 33 | 6 | 0.0 | 9.7 | 0.00 | 0.03 | 0.00 | 57 | 1005.7 |
| 20260509212627 | 33 | 7 | 0.0 | 9.7 | 0.00 | 0.03 | 0.00 | 59 | 1005.7 |
| 20260509212527 | 33 | 7 | 1.6 | 9.7 | 0.00 | 0.03 | 0.00 | 58 | 1005.6 |
| 20260509212429 | 33 | 7 | 1.6 | 9.7 | 0.00 | 0.03 | 0.00 | 59 | 1005.6 |
| 20260509212326 | 33 | 7 | 1.6 | 9.7 | 0.00 | 0.03 | 0.00 | 60 | 1005.7 |
| 20260509212225 | 32 | 7 | 4.8 | 9.7 | 0.00 | 0.03 | 0.00 | 60 | 1005.7 |
| 20260509212127 | 32 | 7 | 6.4 | 9.7 | 0.00 | 0.03 | 0.00 | 60 | 1005.7 |
| 20260509212026 | 32 | 7 | 3.2 | 9.7 | 0.00 | 0.03 | 0.00 | 61 | 1005.6 |
| 20260509211926 | 32 | 355 | 1.6 | 8.0 | 0.00 | 0.03 | 0.00 | 62 | 1005.7 |
| 20260509211825 | 32 | 269 | 1.6 | 8.0 | 0.00 | 0.03 | 0.00 | 62 | 1005.8 |
| 20260509211727 | 32 | 269 | 1.6 | 8.0 | 0.00 | 0.03 | 0.00 | 63 | 1005.7 |
| 20260509211625 | 31 | 269 | 3.2 | 8.0 | 0.00 | 0.03 | 0.00 | 63 | 1005.7 |
| 20260509211525 | 31 | 269 | 3.2 | 8.0 | 0.00 | 0.03 | 0.00 | 62 | 1005.7 |
| 20260509211428 | 31 | 269 | 4.8 | 8.0 | 0.00 | 0.03 | 0.00 | 62 | 1005.8 |
| 20260509211326 | 32 | 269 | 4.8 | 9.7 | 0.00 | 0.03 | 0.00 | 62 | 1005.7 |
| 20260509211227 | 32 | 269 | 6.4 | 9.7 | 0.00 | 0.03 | 0.00 | 61 | 1005.7 |
| 20260509211126 | 32 | 285 | 6.4 | 9.7 | 0.00 | 0.03 | 0.00 | 61 | 1005.8 |
| 20260509211028 | 32 | 307 | 4.8 | 9.7 | 0.00 | 0.03 | 0.00 | 61 | 1005.8 |
| 20260509210926 | 32 | 319 | 4.8 | 9.7 | 0.00 | 0.03 | 0.00 | 61 | 1005.8 |
| 20260509210826 | 32 | 319 | 4.8 | 9.7 | 0.00 | 0.03 | 0.00 | 61 | 1005.8 |
| 20260509210725 | 32 | 321 | 3.2 | 9.7 | 0.00 | 0.03 | 0.00 | 61 | 1005.8 |
| 20260509210626 | 32 | 303 | 3.2 | 9.7 | 0.00 | 0.03 | 0.00 | 60 | 1005.8 |
| 20260509210526 | 32 | 269 | 4.8 | 9.7 | 0.00 | 0.03 | 0.00 | 60 | 1005.8 |
| 20260509210425 | 32 | 269 | 3.2 | 9.7 | 0.00 | 0.03 | 0.00 | 59 | 1005.9 |
| 20260509210326 | 32 | 281 | 0.0 | 6.4 | 0.00 | 0.03 | 0.00 | 61 | 1005.9 |
| 20260509210226 | 32 | 0 | 0.0 | 9.7 | 0.00 | 0.03 | 0.00 | 62 | 1005.9 |
| 20260509210125 | 32 | 0 | 1.6 | 9.7 | 0.00 | 0.03 | 0.00 | 61 | 1005.9 |
| 20260509210026 | 32 | 0 | 3.2 | 9.7 | 0.00 | 0.03 | 0.00 | 61 | 1006.0 |
| 20260509205925 | 32 | 0 | 3.2 | 9.7 | 0.00 | 0.03 | 0.00 | 60 | 1005.9 |
| 20260509205823 | 32 | 0 | 4.8 | 9.7 | 0.00 | 0.03 | 0.00 | 61 | 1006.0 |
| 20260509205723 | 32 | 0 | 4.8 | 9.7 | 0.00 | 0.03 | 0.00 | 61 | 1006.0 |
| 20260509205621 | 32 | 353 | 3.2 | 9.7 | 0.00 | 0.03 | 0.00 | 61 | 1006.0 |
| 20260509205520 | 32 | 353 | 3.2 | 9.7 | 0.00 | 0.03 | 0.00 | 61 | 1006.0 |
| 20260509205419 | 32 | 353 | 4.8 | 9.7 | 0.00 | 0.03 | 0.00 | 61 | 1006.0 |
| 20260509205315 | 32 | 336 | 6.4 | 9.7 | 0.00 | 0.03 | 0.00 | 62 | 1006.1 |
| 20260509205215 | 32 | 345 | 6.4 | 9.7 | 0.00 | 0.03 | 0.00 | 63 | 1006.2 |
| 20260509205112 | 32 | 326 | 6.4 | 9.7 | 0.00 | 0.03 | 0.00 | 62 | 1006.1 |
| 20260509205011 | 32 | 309 | 6.4 | 9.7 | 0.00 | 0.03 | 0.00 | 62 | 1006.1 |
| 20260509204910 | 32 | 316 | 6.4 | 9.7 | 0.00 | 0.03 | 0.00 | 63 | 1006.2 |
| 20260509204808 | 33 | 347 | 6.4 | 9.7 | 0.00 | 0.03 | 0.00 | 61 | 1006.1 |
| 20260509204707 | 33 | 312 | 4.8 | 8.0 | 0.00 | 0.03 | 0.00 | 61 | 1006.1 |
| 20260509204605 | 33 | 338 | 4.8 | 8.0 | 0.00 | 0.03 | 0.00 | 60 | 1006.1 |
| 20260509204504 | 33 | 0 | 3.2 | 4.8 | 0.00 | 0.03 | 0.00 | 60 | 1006.1 |
| 20260509204403 | 33 | 0 | 3.2 | 4.8 | 0.00 | 0.03 | 0.00 | 60 | 1006.1 |
| 20260509204305 | 33 | 350 | 3.2 | 4.8 | 0.00 | 0.03 | 0.00 | 61 | 1006.1 |
| 20260509204203 | 32 | 353 | 3.2 | 6.4 | 0.00 | 0.03 | 0.00 | 62 | 1006.2 |
| 20260509204103 | 32 | 353 | 3.2 | 6.4 | 0.00 | 0.03 | 0.00 | 62 | 1006.2 |
| 20260509204005 | 32 | 353 | 3.2 | 6.4 | 0.00 | 0.03 | 0.00 | 62 | 1006.2 |
| 20260509203903 | 32 | 353 | 3.2 | 6.4 | 0.00 | 0.03 | 0.00 | 61 | 1006.2 |
| 20260509203803 | 32 | 353 | 3.2 | 6.4 | 0.00 | 0.03 | 0.00 | 61 | 1006.2 |
| 20260509203702 | 32 | 353 | 1.6 | 6.4 | 0.00 | 0.03 | 0.00 | 62 | 1006.2 |
| 20260509203602 | 32 | 353 | 1.6 | 6.4 | 0.00 | 0.03 | 0.00 | 61 | 1006.3 |
| 20260509203502 | 32 | 353 | 3.2 | 6.4 | 0.00 | 0.03 | 0.00 | 61 | 1006.3 |
| 20260509203405 | 32 | 353 | 4.8 | 6.4 | 0.00 | 0.03 | 0.00 | 61 | 1006.3 |
| 20260509203302 | 32 | 353 | 4.8 | 6.4 | 0.00 | 0.03 | 0.00 | 61 | 1006.3 |
| 20260509203203 | 32 | 350 | 3.2 | 6.4 | 0.00 | 0.03 | 0.00 | 62 | 1006.3 |
| 20260509203103 | 32 | 350 | 3.2 | 6.4 | 0.00 | 0.03 | 0.00 | 62 | 1006.3 |
| 20260509203004 | 32 | 350 | 3.2 | 6.4 | 0.00 | 0.03 | 0.00 | 63 | 1006.4 |
| 20260509202903 | 32 | 0 | 1.6 | 6.4 | 0.00 | 0.03 | 0.00 | 62 | 1006.3 |
| 20260509202803 | 32 | 0 | 1.6 | 6.4 | 0.00 | 0.03 | 0.00 | 61 | 1006.4 |
| 20260509202704 | 32 | 357 | 3.2 | 6.4 | 0.00 | 0.03 | 0.00 | 61 | 1006.3 |
| 20260509202602 | 32 | 357 | 4.8 | 8.0 | 0.00 | 0.03 | 0.00 | 62 | 1006.4 |
| 20260509202503 | 32 | 357 | 4.8 | 8.0 | 0.00 | 0.03 | 0.00 | 62 | 1006.4 |
| 20260509202404 | 32 | 351 | 3.2 | 8.0 | 0.00 | 0.03 | 0.00 | 62 | 1006.4 |
| 20260509202306 | 32 | 353 | 4.8 | 8.0 | 0.00 | 0.03 | 0.00 | 62 | 1006.3 |
| 20260509202203 | 32 | 350 | 4.8 | 8.0 | 0.00 | 0.03 | 0.00 | 63 | 1006.4 |
| 20260509202102 | 32 | 0 | 3.2 | 8.0 | 0.00 | 0.03 | 0.00 | 63 | 1006.4 |
| 20260509202004 | 32 | 0 | 3.2 | 8.0 | 0.00 | 0.03 | 0.00 | 63 | 1006.4 |
| 20260509201901 | 32 | 0 | 4.8 | 8.0 | 0.00 | 0.03 | 0.00 | 63 | 1006.4 |
| 20260509201802 | 31 | 348 | 6.4 | 8.0 | 0.00 | 0.03 | 0.00 | 64 | 1006.4 |
| 20260509201704 | 31 | 348 | 6.4 | 8.0 | 0.00 | 0.03 | 0.00 | 64 | 1006.4 |
| 20260509201602 | 31 | 314 | 6.4 | 8.0 | 0.00 | 0.03 | 0.00 | 64 | 1006.4 |
| 20260509201503 | 31 | 316 | 6.4 | 8.0 | 0.00 | 0.03 | 0.00 | 65 | 1006.4 |
| 20260509201403 | 31 | 0 | 6.4 | 11.3 | 0.00 | 0.03 | 0.00 | 65 | 1006.4 |
| 20260509201304 | 31 | 13 | 6.4 | 11.3 | 0.00 | 0.03 | 0.00 | 64 | 1006.4 |
| 20260509201202 | 31 | 0 | 6.4 | 11.3 | 0.00 | 0.03 | 0.00 | 64 | 1006.5 |
| 20260509201102 | 32 | 0 | 6.4 | 11.3 | 0.00 | 0.03 | 0.00 | 63 | 1006.5 |
| 20260509201003 | 32 | 348 | 4.8 | 11.3 | 0.00 | 0.03 | 0.00 | 64 | 1006.6 |
| 20260509200902 | 32 | 324 | 4.8 | 11.3 | 0.00 | 0.03 | 0.00 | 63 | 1006.5 |
| 20260509200802 | 32 | 321 | 6.4 | 11.3 | 0.00 | 0.03 | 0.00 | 63 | 1006.5 |
| 20260509200703 | 32 | 323 | 6.4 | 11.3 | 0.00 | 0.03 | 0.00 | 63 | 1006.6 |
| 20260509200603 | 32 | 0 | 6.4 | 11.3 | 0.00 | 0.03 | 0.00 | 64 | 1006.5 |
| 20260509200503 | 32 | 324 | 9.7 | 11.3 | 0.00 | 0.05 | 0.00 | 63 | 1006.6 |
| 20260509200402 | 32 | 338 | 8.0 | 11.3 | 0.00 | 0.05 | 0.00 | 62 | 1006.6 |
| 20260509200303 | 32 | 317 | 4.8 | 11.3 | 0.00 | 0.05 | 0.00 | 63 | 1006.6 |
| 20260509200202 | 32 | 0 | 3.2 | 11.3 | 0.00 | 0.05 | 0.00 | 63 | 1006.6 |
| 20260509200003 | 32 | 31 | 6.4 | 11.3 | 0.00 | 0.08 | 0.00 | 63 | 1006.6 |
| 20260509195903 | 32 | 35 | 4.8 | 11.3 | 0.00 | 0.08 | 0.00 | 63 | 1006.6 |
| 20260509195803 | 32 | 28 | 6.4 | 11.3 | 0.00 | 0.08 | 0.00 | 63 | 1006.7 |
| 20260509195704 | 32 | 17 | 8.0 | 11.3 | 0.00 | 0.08 | 0.00 | 62 | 1006.7 |
| 20260509195602 | 32 | 11 | 6.4 | 11.3 | 0.00 | 0.08 | 0.00 | 63 | 1006.7 |
| 20260509195502 | 32 | 39 | 6.4 | 11.3 | 0.00 | 0.08 | 0.00 | 61 | 1006.8 |
| 20260509195401 | 32 | 56 | 8.0 | 11.3 | 0.00 | 0.08 | 0.00 | 61 | 1006.7 |
| 20260509195306 | 32 | 42 | 8.0 | 11.3 | 0.00 | 0.08 | 0.00 | 62 | 1006.8 |
| 20260509195203 | 32 | 37 | 4.8 | 11.3 | 0.00 | 0.10 | 0.00 | 62 | 1006.7 |
| 20260509195103 | 32 | 0 | 3.2 | 9.7 | 0.00 | 0.10 | 0.00 | 63 | 1006.7 |
| 20260509195003 | 32 | 336 | 3.2 | 9.7 | 0.00 | 0.10 | 0.00 | 62 | 1006.7 |
| 20260509194902 | 32 | 336 | 4.8 | 9.7 | 0.00 | 0.10 | 0.00 | 62 | 1006.7 |
| 20260509194803 | 32 | 320 | 4.8 | 9.7 | 0.00 | 0.10 | 0.00 | 61 | 1006.7 |
| 20260509194702 | 32 | 320 | 4.8 | 9.7 | 0.00 | 0.10 | 0.00 | 61 | 1006.7 |
| 20260509194602 | 32 | 334 | 3.2 | 11.3 | 0.00 | 0.10 | 0.00 | 63 | 1006.7 |
| 20260509194502 | 32 | 0 | 4.8 | 11.3 | 0.00 | 0.10 | 0.00 | 62 | 1006.8 |
| 20260509194403 | 32 | 0 | 6.4 | 11.3 | 0.00 | 0.10 | 0.00 | 62 | 1006.8 |
| 20260509194304 | 32 | 345 | 6.4 | 11.3 | 0.00 | 0.10 | 0.00 | 62 | 1006.8 |
| 20260509194202 | 32 | 338 | 3.2 | 11.3 | 0.00 | 0.13 | 0.00 | 62 | 1006.8 |
| 20260509194103 | 32 | 326 | 1.6 | 11.3 | 0.00 | 0.13 | 0.00 | 62 | 1006.9 |
| 20260509194003 | 32 | 326 | 4.8 | 11.3 | 0.00 | 0.13 | 0.00 | 63 | 1006.9 |
| 20260509193903 | 32 | 321 | 6.4 | 11.3 | 0.00 | 0.13 | 0.00 | 63 | 1007.0 |
| 20260509193802 | 32 | 334 | 8.0 | 11.3 | 0.00 | 0.13 | 0.00 | 64 | 1007.0 |
| 20260509193702 | 31 | 320 | 6.4 | 11.3 | 0.00 | 0.13 | 0.00 | 65 | 1007.0 |
| 20260509193603 | 31 | 319 | 4.8 | 11.3 | 0.00 | 0.13 | 0.00 | 64 | 1006.9 |
| 20260509193502 | 31 | 282 | 8.0 | 11.3 | 0.00 | 0.13 | 0.00 | 64 | 1007.0 |
| 20260509193403 | 31 | 314 | 6.4 | 11.3 | 0.00 | 0.13 | 0.00 | 65 | 1007.0 |
| 20260509193303 | 31 | 286 | 3.2 | 9.7 | 0.00 | 0.13 | 0.00 | 65 | 1007.0 |
| 20260509193202 | 31 | 317 | 4.8 | 9.7 | 0.00 | 0.13 | 0.00 | 65 | 1007.0 |
| 20260509193102 | 31 | 290 | 4.8 | 9.7 | 0.00 | 0.13 | 0.00 | 65 | 1007.1 |
| 20260509193003 | 31 | 305 | 4.8 | 9.7 | 0.00 | 0.13 | 0.00 | 65 | 1007.1 |
| 20260509192903 | 31 | 312 | 6.4 | 9.7 | 0.00 | 0.13 | 0.00 | 66 | 1007.0 |
| 20260509192802 | 31 | 313 | 4.8 | 9.7 | 0.00 | 0.13 | 0.00 | 67 | 1007.0 |
| 20260509192702 | 31 | 300 | 4.8 | 9.7 | 0.00 | 0.13 | 0.00 | 68 | 1007.1 |
| 20260509192603 | 31 | 296 | 6.4 | 9.7 | 0.00 | 0.13 | 0.00 | 65 | 1007.0 |
| 20260509192503 | 31 | 305 | 6.4 | 9.7 | 0.00 | 0.13 | 0.00 | 65 | 1007.0 |
| 20260509192403 | 31 | 314 | 3.2 | 9.7 | 0.00 | 0.13 | 0.00 | 65 | 1007.0 |
| 20260509192305 | 31 | 83 | 3.2 | 9.7 | 0.00 | 0.13 | 0.00 | 65 | 1007.0 |
| 20260509192204 | 31 | 83 | 3.2 | 9.7 | 0.00 | 0.13 | 0.00 | 65 | 1007.0 |
| 20260509192102 | 31 | 85 | 3.2 | 9.7 | 0.00 | 0.13 | 0.00 | 66 | 1006.9 |
| 20260509192002 | 31 | 116 | 3.2 | 9.7 | 0.00 | 0.13 | 0.00 | 66 | 1006.9 |
| 20260509191903 | 31 | 235 | 4.8 | 9.7 | 0.00 | 0.13 | 0.00 | 65 | 1007.0 |
| 20260509191802 | 31 | 235 | 8.0 | 9.7 | 0.00 | 0.13 | 0.00 | 66 | 1007.0 |
| 20260509191702 | 31 | 231 | 6.4 | 9.7 | 0.00 | 0.13 | 0.00 | 65 | 1007.0 |
| 20260509191604 | 31 | 216 | 1.6 | 6.4 | 0.00 | 0.13 | 0.00 | 65 | 1007.0 |
| 20260509191503 | 31 | 310 | 1.6 | 4.8 | 0.00 | 0.13 | 0.00 | 66 | 1007.1 |
| 20260509191402 | 31 | 312 | 3.2 | 4.8 | 0.00 | 0.13 | 0.00 | 66 | 1007.0 |
| 20260509191303 | 31 | 312 | 3.2 | 4.8 | 0.00 | 0.13 | 0.00 | 67 | 1007.1 |
| 20260509191203 | 31 | 90 | 3.2 | 4.8 | 0.00 | 0.13 | 0.00 | 68 | 1007.1 |
| 20260509191102 | 31 | 117 | 3.2 | 4.8 | 0.00 | 0.13 | 0.00 | 68 | 1007.1 |
| 20260509191002 | 31 | 3 | 1.6 | 4.8 | 0.00 | 0.13 | 0.00 | 68 | 1007.2 |
| 20260509190903 | 30 | 0 | 1.6 | 4.8 | 0.00 | 0.13 | 0.00 | 68 | 1007.1 |
| 20260509190804 | 30 | 0 | 1.6 | 4.8 | 0.00 | 0.13 | 0.00 | 69 | 1007.1 |
| 20260509190702 | 30 | 0 | 0.0 | 4.8 | 0.00 | 0.13 | 0.00 | 68 | 1007.2 |
| 20260509190603 | 30 | 0 | 0.0 | 4.8 | 0.00 | 0.13 | 0.00 | 67 | 1007.2 |
| 20260509190505 | 30 | 358 | 0.0 | 4.8 | 0.00 | 0.13 | 0.00 | 68 | 1007.2 |
| 20260509190402 | 30 | 358 | 1.6 | 4.8 | 0.00 | 0.13 | 0.00 | 67 | 1007.1 |
| 20260509190302 | 30 | 358 | 1.6 | 4.8 | 0.00 | 0.13 | 0.00 | 67 | 1007.2 |
| 20260509190203 | 30 | 358 | 1.6 | 4.8 | 0.00 | 0.13 | 0.00 | 68 | 1007.2 |
| 20260509190001 | 30 | 288 | 1.6 | 6.4 | 0.00 | 0.13 | 0.00 | 68 | 1007.2 |
| 20260509185901 | 30 | 288 | 1.6 | 6.4 | 0.00 | 0.13 | 0.00 | 67 | 1007.3 |
| 20260509185803 | 30 | 288 | 1.6 | 6.4 | 0.00 | 0.13 | 0.00 | 67 | 1007.3 |
| 20260509185702 | 30 | 288 | 1.6 | 8.0 | 0.00 | 0.13 | 0.00 | 68 | 1007.3 |
| 20260509185559 | 30 | 288 | 3.2 | 8.0 | 0.00 | 0.13 | 0.00 | 68 | 1007.3 |
| 20260509185459 | 30 | 288 | 3.2 | 8.0 | 0.00 | 0.13 | 0.00 | 68 | 1007.3 |
| 20260509185357 | 30 | 272 | 3.2 | 8.0 | 0.00 | 0.13 | 0.00 | 67 | 1007.3 |
| 20260509185255 | 30 | 272 | 3.2 | 8.0 | 0.00 | 0.13 | 0.00 | 67 | 1007.3 |
| 20260509185153 | 30 | 272 | 3.2 | 8.0 | 0.00 | 0.13 | 0.00 | 67 | 1007.3 |
| 20260509185053 | 30 | 221 | 3.2 | 8.0 | 0.00 | 0.13 | 0.00 | 68 | 1007.3 |
| 20260509184950 | 30 | 261 | 3.2 | 8.0 | 0.00 | 0.13 | 0.00 | 68 | 1007.3 |
| 20260509184849 | 30 | 238 | 4.8 | 8.0 | 0.00 | 0.13 | 0.00 | 68 | 1007.3 |
| 20260509184747 | 30 | 238 | 6.4 | 8.0 | 0.00 | 0.13 | 0.00 | 68 | 1007.3 |
| 20260509184647 | 30 | 240 | 4.8 | 8.0 | 0.00 | 0.13 | 0.00 | 68 | 1007.2 |
| 20260509184545 | 30 | 151 | 4.8 | 9.7 | 0.00 | 0.13 | 0.00 | 68 | 1007.3 |
| 20260509184444 | 30 | 195 | 4.8 | 14.5 | 0.00 | 0.13 | 0.00 | 69 | 1007.3 |
| 20260509184341 | 30 | 106 | 4.8 | 14.5 | 0.00 | 0.13 | 0.00 | 69 | 1007.3 |
| 20260509184240 | 30 | 228 | 6.4 | 14.5 | 0.00 | 0.13 | 0.00 | 69 | 1007.4 |
| 20260509184139 | 30 | 226 | 4.8 | 14.5 | 0.00 | 0.13 | 0.00 | 69 | 1007.4 |
| 20260509184037 | 30 | 264 | 3.2 | 14.5 | 0.00 | 0.13 | 0.00 | 69 | 1007.4 |
| 20260509183936 | 30 | 258 | 4.8 | 14.5 | 0.00 | 0.13 | 0.00 | 70 | 1007.4 |
| 20260509183834 | 30 | 258 | 4.8 | 14.5 | 0.00 | 0.13 | 0.00 | 70 | 1007.4 |
| 20260509183732 | 30 | 264 | 6.4 | 14.5 | 0.00 | 0.13 | 0.00 | 70 | 1007.4 |
| 20260509183632 | 30 | 264 | 8.0 | 16.1 | 0.00 | 0.13 | 0.00 | 70 | 1007.4 |
| 20260509183531 | 30 | 286 | 8.0 | 16.1 | 0.00 | 0.13 | 0.00 | 70 | 1007.4 |
| 20260509183431 | 30 | 217 | 6.4 | 16.1 | 0.00 | 0.13 | 0.00 | 71 | 1007.4 |
| 20260509183331 | 29 | 252 | 4.8 | 16.1 | 0.00 | 0.13 | 0.00 | 72 | 1007.4 |
| 20260509183231 | 29 | 258 | 4.8 | 16.1 | 0.00 | 0.13 | 0.00 | 71 | 1007.5 |
| 20260509183132 | 29 | 247 | 4.8 | 16.1 | 0.00 | 0.13 | 0.00 | 71 | 1007.4 |
| 20260509183030 | 30 | 261 | 6.4 | 16.1 | 0.00 | 0.13 | 0.00 | 71 | 1007.4 |
| 20260509182932 | 30 | 238 | 9.7 | 16.1 | 0.00 | 0.13 | 0.00 | 71 | 1007.5 |
| 20260509182831 | 30 | 252 | 9.7 | 16.1 | 0.00 | 0.13 | 0.00 | 71 | 1007.5 |
| 20260509182732 | 30 | 250 | 8.0 | 16.1 | 0.00 | 0.13 | 0.00 | 71 | 1007.6 |
| 20260509182631 | 30 | 209 | 6.4 | 16.1 | 0.00 | 0.13 | 0.00 | 71 | 1007.5 |
| 20260509182531 | 30 | 200 | 6.4 | 16.1 | 0.00 | 0.13 | 0.00 | 71 | 1007.6 |
| 20260509182430 | 30 | 231 | 6.4 | 16.1 | 0.00 | 0.13 | 0.00 | 70 | 1007.5 |
| 20260509182332 | 30 | 238 | 6.4 | 16.1 | 0.00 | 0.13 | 0.00 | 70 | 1007.5 |
| 20260509182232 | 30 | 203 | 6.4 | 16.1 | 0.00 | 0.13 | 0.00 | 70 | 1007.6 |
| 20260509182131 | 30 | 195 | 8.0 | 17.7 | 0.00 | 0.13 | 0.00 | 70 | 1007.5 |
| 20260509182033 | 30 | 183 | 6.4 | 17.7 | 0.00 | 0.13 | 0.00 | 70 | 1007.6 |
| 20260509181932 | 30 | 220 | 6.4 | 17.7 | 0.00 | 0.13 | 0.00 | 70 | 1007.6 |
| 20260509181830 | 30 | 210 | 4.8 | 17.7 | 0.00 | 0.13 | 0.00 | 71 | 1007.6 |
| 20260509181730 | 30 | 234 | 3.2 | 17.7 | 0.00 | 0.13 | 0.00 | 70 | 1007.7 |
| 20260509181631 | 30 | 192 | 3.2 | 17.7 | 0.00 | 0.13 | 0.00 | 70 | 1007.7 |
| 20260509181531 | 30 | 173 | 6.4 | 17.7 | 0.00 | 0.13 | 0.00 | 70 | 1007.7 |
| 20260509181431 | 30 | 226 | 9.7 | 17.7 | 0.00 | 0.13 | 0.00 | 69 | 1007.7 |
| 20260509181331 | 30 | 234 | 9.7 | 17.7 | 0.00 | 0.13 | 0.00 | 69 | 1007.7 |
| 20260509181231 | 30 | 230 | 9.7 | 17.7 | 0.00 | 0.13 | 0.00 | 70 | 1007.7 |
| 20260509181131 | 30 | 173 | 9.7 | 17.7 | 0.00 | 0.13 | 0.00 | 69 | 1007.8 |
| 20260509181031 | 31 | 89 | 8.0 | 17.7 | 0.00 | 0.13 | 0.00 | 68 | 1007.7 |
| 20260509180931 | 31 | 152 | 9.7 | 17.7 | 0.00 | 0.13 | 0.00 | 68 | 1007.9 |
| 20260509180831 | 31 | 121 | 9.7 | 17.7 | 0.00 | 0.13 | 0.00 | 67 | 1007.9 |
| 20260509180731 | 31 | 192 | 9.7 | 17.7 | 0.00 | 0.13 | 0.00 | 67 | 1007.9 |
| 20260509180629 | 31 | 151 | 8.0 | 17.7 | 0.00 | 0.13 | 0.00 | 69 | 1007.9 |
| 20260509180527 | 31 | 169 | 8.0 | 17.7 | 0.00 | 0.13 | 0.00 | 68 | 1007.9 |
| 20260509180426 | 31 | 202 | 6.4 | 17.7 | 0.00 | 0.13 | 0.00 | 70 | 1007.9 |
| 20260509180324 | 31 | 195 | 4.8 | 20.9 | 0.00 | 0.13 | 0.00 | 70 | 1007.9 |
| 20260509180222 | 31 | 155 | 4.8 | 20.9 | 0.00 | 0.13 | 0.00 | 71 | 1007.9 |
| 20260509180123 | 30 | 248 | 9.7 | 20.9 | 0.00 | 0.13 | 0.00 | 70 | 1007.9 |
| 20260509180022 | 30 | 248 | 9.7 | 20.9 | 0.00 | 0.13 | 0.00 | 70 | 1008.0 |
| 20260509175923 | 30 | 248 | 9.7 | 20.9 | 0.00 | 0.13 | 0.00 | 70 | 1007.9 |
| 20260509175822 | 30 | 247 | 11.3 | 20.9 | 0.00 | 0.13 | 0.00 | 70 | 1008.0 |
| 20260509175721 | 31 | 235 | 11.3 | 20.9 | 0.00 | 0.13 | 0.00 | 69 | 1008.0 |
| 20260509175623 | 31 | 197 | 11.3 | 20.9 | 0.00 | 0.13 | 0.00 | 70 | 1008.1 |
| 20260509175522 | 31 | 179 | 11.3 | 20.9 | 0.00 | 0.13 | 0.00 | 70 | 1008.1 |
| 20260509175422 | 31 | 203 | 12.9 | 19.3 | 0.00 | 0.13 | 0.00 | 71 | 1008.1 |
| 20260509175323 | 31 | 264 | 9.7 | 17.7 | 0.00 | 0.13 | 0.00 | 72 | 1008.2 |
| 20260509175222 | 30 | 192 | 8.0 | 14.5 | 0.00 | 0.13 | 0.00 | 73 | 1008.1 |
| 20260509175121 | 30 | 223 | 8.0 | 14.5 | 0.00 | 0.13 | 0.00 | 72 | 1008.1 |
| 20260509175021 | 30 | 206 | 6.4 | 16.1 | 0.00 | 0.13 | 0.00 | 72 | 1008.2 |
| 20260509174923 | 30 | 231 | 6.4 | 16.1 | 0.00 | 0.13 | 0.00 | 72 | 1008.1 |
| 20260509174821 | 30 | 250 | 4.8 | 17.7 | 0.00 | 0.13 | 0.00 | 73 | 1008.1 |
| 20260509174721 | 30 | 259 | 3.2 | 17.7 | 0.00 | 0.13 | 0.00 | 74 | 1008.1 |
| 20260509174622 | 30 | 131 | 6.4 | 17.7 | 0.00 | 0.13 | 0.00 | 74 | 1008.1 |
| 20260509174522 | 30 | 189 | 8.0 | 17.7 | 0.00 | 0.13 | 0.00 | 74 | 1008.2 |
| 20260509174421 | 30 | 275 | 8.0 | 17.7 | 0.00 | 0.13 | 0.00 | 75 | 1008.2 |
| 20260509174322 | 30 | 166 | 8.0 | 17.7 | 0.00 | 0.13 | 0.00 | 75 | 1008.3 |
| 20260509174223 | 29 | 226 | 8.0 | 17.7 | 0.00 | 0.13 | 0.00 | 75 | 1008.3 |
| 20260509174123 | 29 | 223 | 8.0 | 17.7 | 0.00 | 0.13 | 0.00 | 76 | 1008.3 |
| 20260509174020 | 29 | 269 | 9.7 | 17.7 | 0.00 | 0.13 | 0.00 | 76 | 1008.3 |
| 20260509173922 | 29 | 227 | 9.7 | 17.7 | 0.00 | 0.13 | 0.00 | 76 | 1008.2 |
| 20260509173821 | 29 | 203 | 9.7 | 19.3 | 0.00 | 0.13 | 0.00 | 76 | 1008.3 |
| 20260509173722 | 29 | 223 | 9.7 | 19.3 | 0.00 | 0.13 | 0.00 | 76 | 1008.2 |
| 20260509173621 | 29 | 175 | 9.7 | 19.3 | 0.00 | 0.13 | 0.00 | 76 | 1008.2 |
| 20260509173523 | 29 | 125 | 8.0 | 19.3 | 0.00 | 0.13 | 0.00 | 77 | 1008.2 |
| 20260509173420 | 29 | 213 | 6.4 | 19.3 | 0.00 | 0.13 | 0.00 | 77 | 1008.2 |
| 20260509173322 | 29 | 197 | 8.0 | 19.3 | 0.00 | 0.13 | 0.00 | 77 | 1008.2 |
| 20260509173223 | 29 | 185 | 6.4 | 19.3 | 0.00 | 0.13 | 0.00 | 78 | 1008.2 |
| 20260509173121 | 29 | 207 | 8.0 | 19.3 | 0.00 | 0.13 | 0.00 | 78 | 1008.3 |
| 20260509173022 | 29 | 138 | 9.7 | 19.3 | 0.00 | 0.13 | 0.00 | 78 | 1008.3 |
| 20260509172923 | 29 | 102 | 9.7 | 19.3 | 0.00 | 0.13 | 0.00 | 78 | 1008.3 |
| 20260509172822 | 29 | 151 | 6.4 | 17.7 | 0.00 | 0.13 | 0.00 | 79 | 1008.2 |
| 20260509172720 | 28 | 200 | 6.4 | 17.7 | 0.00 | 0.13 | 0.00 | 79 | 1008.2 |
| 20260509172620 | 28 | 220 | 8.0 | 17.7 | 0.00 | 0.13 | 0.00 | 79 | 1008.3 |
| 20260509172523 | 28 | 193 | 8.0 | 17.7 | 0.00 | 0.13 | 0.00 | 79 | 1008.3 |
| 20260509172421 | 28 | 176 | 9.7 | 17.7 | 0.00 | 0.13 | 0.00 | 79 | 1008.3 |
| 20260509172321 | 28 | 209 | 9.7 | 17.7 | 0.00 | 0.13 | 0.00 | 79 | 1008.4 |
| 20260509172221 | 28 | 209 | 9.7 | 16.1 | 0.00 | 0.13 | 0.00 | 79 | 1008.4 |
| 20260509172122 | 28 | 214 | 9.7 | 17.7 | 0.00 | 0.13 | 0.00 | 78 | 1008.4 |
| 20260509172020 | 28 | 214 | 9.7 | 17.7 | 0.00 | 0.13 | 0.00 | 78 | 1008.4 |
| 20260509171920 | 28 | 228 | 8.0 | 17.7 | 0.00 | 0.13 | 0.00 | 79 | 1008.4 |
| 20260509171821 | 28 | 265 | 8.0 | 17.7 | 0.00 | 0.13 | 0.00 | 79 | 1008.5 |
| 20260509171721 | 28 | 202 | 8.0 | 17.7 | 0.00 | 0.13 | 0.00 | 79 | 1008.5 |
| 20260509171621 | 28 | 248 | 8.0 | 17.7 | 0.00 | 0.13 | 0.00 | 79 | 1008.4 |
| 20260509171521 | 28 | 244 | 8.0 | 17.7 | 0.00 | 0.13 | 0.00 | 79 | 1008.4 |
| 20260509171420 | 28 | 190 | 9.7 | 17.7 | 0.00 | 0.13 | 0.00 | 79 | 1008.4 |
| 20260509171321 | 28 | 228 | 11.3 | 17.7 | 0.00 | 0.13 | 0.00 | 79 | 1008.5 |
| 20260509171220 | 28 | 195 | 9.7 | 17.7 | 0.00 | 0.13 | 0.00 | 79 | 1008.5 |
| 20260509171122 | 28 | 210 | 6.4 | 17.7 | 0.00 | 0.13 | 0.00 | 79 | 1008.4 |
| 20260509171020 | 29 | 216 | 6.4 | 17.7 | 0.00 | 0.13 | 0.00 | 80 | 1008.4 |
| 20260509170920 | 28 | 214 | 6.4 | 17.7 | 0.00 | 0.13 | 0.00 | 80 | 1008.3 |
| 20260509170822 | 28 | 262 | 4.8 | 16.1 | 0.00 | 0.13 | 0.00 | 82 | 1008.3 |
| 20260509170722 | 28 | 162 | 4.8 | 16.1 | 0.00 | 0.13 | 0.00 | 82 | 1008.3 |
| 20260509170620 | 28 | 117 | 6.4 | 16.1 | 0.00 | 0.13 | 0.00 | 81 | 1008.2 |
| 20260509170520 | 28 | 182 | 6.4 | 16.1 | 0.00 | 0.13 | 0.00 | 82 | 1008.3 |
| 20260509170421 | 28 | 165 | 4.8 | 16.1 | 0.00 | 0.13 | 0.00 | 83 | 1008.3 |
| 20260509170320 | 27 | 182 | 4.8 | 16.1 | 0.00 | 0.13 | 0.00 | 84 | 1008.3 |
| 20260509170220 | 27 | 159 | 6.4 | 16.1 | 0.00 | 0.13 | 0.00 | 83 | 1008.4 |
| 20260509170121 | 27 | 175 | 8.0 | 16.1 | 0.00 | 0.13 | 0.00 | 83 | 1008.4 |
| 20260509170021 | 27 | 234 | 6.4 | 16.1 | 0.00 | 0.13 | 0.00 | 83 | 1008.5 |
| 20260509165921 | 27 | 171 | 4.8 | 9.7 | 0.00 | 0.13 | 0.00 | 84 | 1008.4 |
| 20260509165820 | 27 | 180 | 3.2 | 9.7 | 0.00 | 0.13 | 0.00 | 84 | 1008.5 |
| 20260509165722 | 27 | 94 | 3.2 | 9.7 | 0.00 | 0.13 | 0.00 | 84 | 1008.4 |
| 20260509165620 | 27 | 173 | 3.2 | 9.7 | 0.00 | 0.13 | 0.00 | 84 | 1008.4 |
| 20260509165520 | 27 | 166 | 3.2 | 9.7 | 0.00 | 0.13 | 0.00 | 84 | 1008.4 |
| 20260509165421 | 27 | 173 | 4.8 | 9.7 | 0.00 | 0.13 | 0.00 | 84 | 1008.5 |
| 20260509165319 | 27 | 200 | 6.4 | 9.7 | 0.00 | 0.13 | 0.00 | 84 | 1008.5 |
| 20260509165221 | 27 | 171 | 4.8 | 8.0 | 0.00 | 0.13 | 0.00 | 84 | 1008.3 |
| 20260509165120 | 27 | 199 | 1.6 | 6.4 | 0.00 | 0.13 | 0.00 | 85 | 1008.5 |
| 20260509165021 | 27 | 196 | 0.0 | 6.4 | 0.00 | 0.13 | 0.00 | 84 | 1008.4 |
| 20260509164920 | 27 | 164 | 1.6 | 6.4 | 0.00 | 0.13 | 0.00 | 84 | 1008.5 |
| 20260509164820 | 27 | 162 | 3.2 | 6.4 | 0.00 | 0.13 | 0.00 | 85 | 1008.4 |
| 20260509164720 | 27 | 195 | 1.6 | 6.4 | 0.00 | 0.13 | 0.00 | 85 | 1008.5 |
| 20260509164620 | 27 | 169 | 0.0 | 6.4 | 0.00 | 0.13 | 0.00 | 85 | 1008.5 |
| 20260509164520 | 26 | 252 | 0.0 | 6.4 | 0.00 | 0.13 | 0.00 | 85 | 1008.5 |
| 20260509164420 | 26 | 252 | 1.6 | 6.4 | 0.00 | 0.13 | 0.00 | 85 | 1008.4 |
| 20260509164319 | 26 | 252 | 3.2 | 6.4 | 0.00 | 0.13 | 0.00 | 85 | 1008.4 |
| 20260509164220 | 26 | 268 | 3.2 | 6.4 | 0.00 | 0.13 | 0.00 | 85 | 1008.4 |
| 20260509164119 | 26 | 269 | 3.2 | 6.4 | 0.00 | 0.13 | 0.00 | 85 | 1008.4 |
| 20260509164020 | 26 | 276 | 3.2 | 6.4 | 0.00 | 0.13 | 0.00 | 85 | 1008.5 |
| 20260509163920 | 26 | 278 | 3.2 | 6.4 | 0.00 | 0.13 | 0.00 | 85 | 1008.5 |
| 20260509163820 | 26 | 240 | 3.2 | 6.4 | 0.00 | 0.13 | 0.00 | 85 | 1008.6 |
| 20260509163720 | 26 | 240 | 3.2 | 6.4 | 0.00 | 0.13 | 0.00 | 85 | 1008.6 |
| 20260509163621 | 26 | 247 | 3.2 | 6.4 | 0.00 | 0.13 | 0.00 | 85 | 1008.6 |
| 20260509163519 | 26 | 268 | 3.2 | 6.4 | 0.00 | 0.13 | 0.00 | 85 | 1008.6 |
| 20260509163419 | 26 | 264 | 4.8 | 6.4 | 0.00 | 0.13 | 0.00 | 85 | 1008.6 |
| 20260509163320 | 26 | 252 | 3.2 | 6.4 | 0.00 | 0.13 | 0.00 | 85 | 1008.6 |
| 20260509163219 | 26 | 254 | 3.2 | 6.4 | 0.00 | 0.13 | 0.00 | 84 | 1008.6 |
| 20260509163119 | 26 | 254 | 3.2 | 6.4 | 0.00 | 0.13 | 0.00 | 84 | 1008.6 |
| 20260509163019 | 26 | 258 | 3.2 | 4.8 | 0.00 | 0.13 | 0.00 | 84 | 1008.6 |
| 20260509162920 | 26 | 258 | 3.2 | 4.8 | 0.00 | 0.13 | 0.00 | 85 | 1008.6 |
| 20260509162821 | 26 | 326 | 3.2 | 4.8 | 0.00 | 0.13 | 0.00 | 85 | 1008.6 |
| 20260509162721 | 26 | 326 | 3.2 | 4.8 | 0.00 | 0.13 | 0.00 | 85 | 1008.6 |
| 20260509162620 | 26 | 326 | 1.6 | 4.8 | 0.00 | 0.13 | 0.00 | 85 | 1008.7 |
| 20260509162519 | 26 | 326 | 0.0 | 4.8 | 0.00 | 0.13 | 0.00 | 86 | 1008.6 |
| 20260509162419 | 26 | 326 | 0.0 | 4.8 | 0.00 | 0.13 | 0.00 | 86 | 1008.6 |
| 20260509162320 | 26 | 326 | 1.6 | 4.8 | 0.00 | 0.13 | 0.00 | 85 | 1008.6 |
| 20260509162220 | 26 | 326 | 1.6 | 4.8 | 0.00 | 0.13 | 0.00 | 86 | 1008.6 |
| 20260509162120 | 26 | 326 | 0.0 | 4.8 | 0.00 | 0.13 | 0.00 | 86 | 1008.6 |
| 20260509162020 | 26 | 326 | 1.6 | 4.8 | 0.00 | 0.13 | 0.00 | 86 | 1008.6 |
| 20260509161920 | 26 | 326 | 3.2 | 6.4 | 0.00 | 0.13 | 0.00 | 86 | 1008.6 |
| 20260509161820 | 26 | 326 | 1.6 | 8.0 | 0.00 | 0.13 | 0.00 | 86 | 1008.6 |
| 20260509161721 | 26 | 329 | 1.6 | 8.0 | 0.00 | 0.13 | 0.00 | 87 | 1008.7 |
| 20260509161621 | 26 | 329 | 1.6 | 8.0 | 0.00 | 0.13 | 0.00 | 86 | 1008.7 |
| 20260509161519 | 26 | 329 | 1.6 | 8.0 | 0.00 | 0.13 | 0.00 | 86 | 1008.7 |
| 20260509161419 | 26 | 329 | 1.6 | 8.0 | 0.00 | 0.13 | 0.00 | 87 | 1008.7 |
| 20260509161319 | 26 | 329 | 3.2 | 8.0 | 0.00 | 0.13 | 0.00 | 87 | 1008.7 |
| 20260509161220 | 26 | 329 | 3.2 | 8.0 | 0.00 | 0.13 | 0.00 | 87 | 1008.7 |
| 20260509161119 | 26 | 329 | 4.8 | 8.0 | 0.00 | 0.13 | 0.00 | 87 | 1008.7 |
| 20260509161020 | 26 | 329 | 4.8 | 8.0 | 0.00 | 0.13 | 0.00 | 87 | 1008.7 |
| 20260509160920 | 26 | 324 | 4.8 | 8.0 | 0.00 | 0.13 | 0.00 | 87 | 1008.7 |
| 20260509160820 | 26 | 14 | 1.6 | 4.8 | 0.00 | 0.13 | 0.00 | 87 | 1008.7 |
| 20260509160720 | 26 | 14 | 1.6 | 4.8 | 0.00 | 0.13 | 0.00 | 87 | 1008.8 |
| 20260509160620 | 26 | 14 | 1.6 | 4.8 | 0.00 | 0.13 | 0.00 | 87 | 1008.8 |
| 20260509160520 | 26 | 14 | 1.6 | 4.8 | 0.00 | 0.13 | 0.00 | 87 | 1008.8 |
| 20260509160420 | 26 | 14 | 1.6 | 6.4 | 0.00 | 0.13 | 0.00 | 87 | 1008.7 |
| 20260509160318 | 26 | 14 | 1.6 | 6.4 | 0.00 | 0.13 | 0.00 | 87 | 1008.8 |
| 20260509160220 | 26 | 14 | 3.2 | 6.4 | 0.00 | 0.13 | 0.00 | 87 | 1008.7 |
| 20260509160119 | 26 | 14 | 1.6 | 6.4 | 0.00 | 0.13 | 0.00 | 87 | 1008.8 |
| 20260509160019 | 26 | 14 | 1.6 | 6.4 | 0.00 | 0.13 | 0.00 | 87 | 1008.7 |
| 20260509155920 | 26 | 14 | 3.2 | 6.4 | 0.00 | 0.13 | 0.00 | 87 | 1008.7 |
| 20260509155821 | 26 | 14 | 3.2 | 6.4 | 0.00 | 0.13 | 0.00 | 87 | 1008.7 |
| 20260509155719 | 26 | 14 | 3.2 | 6.4 | 0.00 | 0.13 | 0.00 | 87 | 1008.7 |
| 20260509155618 | 26 | 14 | 3.2 | 6.4 | 0.00 | 0.13 | 0.00 | 87 | 1008.7 |
| 20260509155518 | 26 | 14 | 3.2 | 6.4 | 0.00 | 0.13 | 0.00 | 87 | 1008.7 |
| 20260509155418 | 26 | 14 | 3.2 | 6.4 | 0.00 | 0.13 | 0.00 | 87 | 1008.7 |
| 20260509155318 | 26 | 14 | 3.2 | 4.8 | 0.00 | 0.13 | 0.00 | 87 | 1008.7 |
| 20260509155218 | 26 | 13 | 1.6 | 4.8 | 0.00 | 0.13 | 0.00 | 87 | 1008.7 |
| 20260509155118 | 26 | 11 | 0.0 | 4.8 | 0.00 | 0.13 | 0.00 | 87 | 1008.7 |
| 20260509155019 | 26 | 11 | 1.6 | 4.8 | 0.00 | 0.13 | 0.00 | 88 | 1008.7 |
| 20260509154919 | 26 | 11 | 1.6 | 4.8 | 0.00 | 0.13 | 0.00 | 88 | 1008.6 |
| 20260509154819 | 26 | 13 | 3.2 | 4.8 | 0.00 | 0.13 | 0.00 | 88 | 1008.6 |
| 20260509154718 | 26 | 13 | 3.2 | 4.8 | 0.00 | 0.13 | 0.00 | 88 | 1008.6 |
| 20260509154619 | 26 | 13 | 3.2 | 6.4 | 0.00 | 0.13 | 0.00 | 89 | 1008.6 |
| 20260509154518 | 26 | 13 | 1.6 | 6.4 | 0.00 | 0.13 | 0.00 | 88 | 1008.6 |
| 20260509154419 | 26 | 13 | 1.6 | 6.4 | 0.00 | 0.13 | 0.00 | 88 | 1008.6 |
| 20260509154318 | 26 | 13 | 3.2 | 6.4 | 0.00 | 0.13 | 0.00 | 89 | 1008.6 |
| 20260509154218 | 26 | 13 | 1.6 | 6.4 | 0.00 | 0.13 | 0.00 | 89 | 1008.6 |
| 20260509154119 | 26 | 13 | 1.6 | 6.4 | 0.00 | 0.13 | 0.00 | 89 | 1008.6 |
| 20260509154019 | 26 | 13 | 1.6 | 6.4 | 0.00 | 0.13 | 0.00 | 89 | 1008.6 |
| 20260509153918 | 26 | 13 | 3.2 | 6.4 | 0.00 | 0.13 | 0.00 | 90 | 1008.6 |
| 20260509153818 | 26 | 13 | 4.8 | 6.4 | 0.00 | 0.13 | 0.00 | 90 | 1008.5 |
| 20260509153719 | 26 | 14 | 3.2 | 6.4 | 0.00 | 0.13 | 0.00 | 90 | 1008.6 |
| 20260509153619 | 26 | 354 | 3.2 | 4.8 | 0.00 | 0.13 | 0.00 | 90 | 1008.6 |
| 20260509153518 | 26 | 354 | 1.6 | 4.8 | 0.00 | 0.13 | 0.00 | 90 | 1008.6 |
| 20260509153420 | 26 | 353 | 1.6 | 4.8 | 0.00 | 0.13 | 0.00 | 90 | 1008.7 |
| 20260509153319 | 26 | 351 | 3.2 | 4.8 | 0.00 | 0.13 | 0.00 | 90 | 1008.8 |
| 20260509153218 | 26 | 214 | 3.2 | 4.8 | 0.00 | 0.13 | 0.00 | 90 | 1008.8 |
| 20260509153119 | 26 | 219 | 1.6 | 3.2 | 0.00 | 0.13 | 0.00 | 90 | 1008.8 |
| 20260509153018 | 26 | 204 | 0.0 | 3.2 | 0.00 | 0.13 | 0.00 | 91 | 1008.8 |
| 20260509152918 | 25 | 0 | 0.0 | 3.2 | 0.00 | 0.13 | 0.00 | 91 | 1008.7 |
| 20260509152818 | 25 | 286 | 0.0 | 3.2 | 0.00 | 0.13 | 0.00 | 91 | 1008.7 |
| 20260509152719 | 25 | 290 | 0.0 | 3.2 | 0.00 | 0.13 | 0.00 | 91 | 1008.7 |
| 20260509152618 | 25 | 295 | 1.6 | 4.8 | 0.00 | 0.13 | 0.00 | 91 | 1008.7 |
| 20260509152518 | 25 | 298 | 1.6 | 4.8 | 0.00 | 0.13 | 0.00 | 91 | 1008.7 |
| 20260509152420 | 25 | 298 | 1.6 | 4.8 | 0.00 | 0.13 | 0.00 | 92 | 1008.7 |
| 20260509152317 | 25 | 300 | 0.0 | 4.8 | 0.00 | 0.13 | 0.00 | 92 | 1008.6 |
| 20260509152219 | 25 | 303 | 0.0 | 4.8 | 0.00 | 0.13 | 0.00 | 92 | 1008.7 |
| 20260509152118 | 25 | 303 | 0.0 | 4.8 | 0.00 | 0.13 | 0.00 | 92 | 1008.7 |
| 20260509152020 | 25 | 305 | 1.6 | 4.8 | 0.00 | 0.13 | 0.00 | 92 | 1008.7 |
| 20260509151918 | 25 | 305 | 3.2 | 4.8 | 0.00 | 0.13 | 0.00 | 92 | 1008.7 |
| 20260509151818 | 25 | 303 | 3.2 | 4.8 | 0.00 | 0.13 | 0.00 | 92 | 1008.7 |
| 20260509151718 | 25 | 302 | 1.6 | 4.8 | 0.00 | 0.13 | 0.00 | 92 | 1008.8 |
| 20260509151619 | 25 | 300 | 1.6 | 4.8 | 0.00 | 0.13 | 0.00 | 92 | 1008.9 |
| 20260509151517 | 25 | 300 | 1.6 | 4.8 | 0.00 | 0.13 | 0.00 | 93 | 1008.9 |
| 20260509151417 | 25 | 298 | 1.6 | 4.8 | 0.00 | 0.13 | 0.00 | 92 | 1008.9 |
| 20260509151320 | 25 | 305 | 3.2 | 4.8 | 0.00 | 0.13 | 0.00 | 92 | 1008.9 |
| 20260509151218 | 25 | 306 | 3.2 | 4.8 | 0.00 | 0.13 | 0.00 | 92 | 1008.9 |
| 20260509151118 | 25 | 302 | 3.2 | 4.8 | 0.00 | 0.13 | 0.00 | 92 | 1008.8 |
| 20260509151017 | 25 | 303 | 3.2 | 4.8 | 0.00 | 0.13 | 0.00 | 93 | 1008.8 |
| 20260509150919 | 25 | 302 | 1.6 | 4.8 | 0.00 | 0.13 | 0.00 | 93 | 1008.9 |
| 20260509150819 | 25 | 303 | 3.2 | 4.8 | 0.00 | 0.13 | 0.00 | 93 | 1008.8 |
| 20260509150718 | 25 | 303 | 3.2 | 4.8 | 0.00 | 0.13 | 0.00 | 92 | 1008.7 |
| 20260509150618 | 25 | 302 | 3.2 | 4.8 | 0.00 | 0.13 | 0.00 | 93 | 1008.7 |
| 20260509150518 | 25 | 300 | 3.2 | 4.8 | 0.00 | 0.13 | 0.00 | 93 | 1008.7 |
| 20260509150417 | 25 | 302 | 1.6 | 4.8 | 0.00 | 0.13 | 0.00 | 93 | 1008.7 |
| 20260509150318 | 25 | 299 | 3.2 | 4.8 | 0.00 | 0.13 | 0.00 | 93 | 1008.7 |
| 20260509150218 | 25 | 292 | 3.2 | 4.8 | 0.00 | 0.13 | 0.00 | 93 | 1008.7 |
| 20260509150117 | 25 | 296 | 3.2 | 4.8 | 0.00 | 0.13 | 0.00 | 93 | 1008.7 |
| 20260509150017 | 25 | 299 | 3.2 | 4.8 | 0.00 | 0.13 | 0.00 | 93 | 1008.6 |
| 20260509145918 | 25 | 299 | 3.2 | 4.8 | 0.00 | 0.13 | 0.00 | 93 | 1008.6 |
| 20260509145817 | 25 | 299 | 3.2 | 4.8 | 0.00 | 0.13 | 0.00 | 93 | 1008.5 |
| 20260509145717 | 25 | 302 | 1.6 | 4.8 | 0.00 | 0.13 | 0.00 | 93 | 1008.5 |
| 20260509145618 | 25 | 299 | 3.2 | 4.8 | 0.00 | 0.13 | 0.00 | 94 | 1008.5 |
| 20260509145517 | 25 | 300 | 3.2 | 4.8 | 0.00 | 0.13 | 0.00 | 94 | 1008.5 |
| 20260509145417 | 25 | 298 | 3.2 | 4.8 | 0.00 | 0.13 | 0.00 | 94 | 1008.4 |
| 20260509145317 | 25 | 298 | 3.2 | 4.8 | 0.00 | 0.13 | 0.00 | 94 | 1008.4 |
| 20260509145218 | 25 | 299 | 1.6 | 4.8 | 0.00 | 0.13 | 0.00 | 94 | 1008.4 |
| 20260509145117 | 25 | 245 | 0.0 | 3.2 | 0.00 | 0.13 | 0.00 | 94 | 1008.4 |
| 20260509145018 | 25 | 244 | 1.6 | 3.2 | 0.00 | 0.13 | 0.00 | 94 | 1008.4 |
| 20260509144918 | 25 | 241 | 1.6 | 3.2 | 0.00 | 0.13 | 0.00 | 95 | 1008.4 |
| 20260509144817 | 25 | 241 | 1.6 | 3.2 | 0.00 | 0.13 | 0.00 | 94 | 1008.4 |
| 20260509144718 | 25 | 241 | 1.6 | 3.2 | 0.00 | 0.13 | 0.00 | 94 | 1008.4 |
| 20260509144617 | 25 | 244 | 0.0 | 3.2 | 0.00 | 0.13 | 0.00 | 95 | 1008.5 |
| 20260509144517 | 25 | 243 | 0.0 | 3.2 | 0.00 | 0.13 | 0.00 | 95 | 1008.4 |
| 20260509144418 | 25 | 243 | 0.0 | 3.2 | 0.00 | 0.13 | 0.00 | 95 | 1008.4 |
| 20260509144303 | 25 | 243 | 0.0 | 3.2 | 0.00 | 0.13 | 0.00 | 95 | 1008.4 |
| 20260509144204 | 25 | 243 | 1.6 | 3.2 | 0.00 | 0.13 | 0.00 | 95 | 1008.4 |
| 20260509144105 | 25 | 244 | 1.6 | 3.2 | 0.00 | 0.13 | 0.00 | 95 | 1008.4 |
| 20260509144002 | 25 | 241 | 0.0 | 0.0 | 0.00 | 0.13 | 0.00 | 95 | 1008.3 |
| 20260509143902 | 25 | 243 | 0.0 | 0.0 | 0.00 | 0.13 | 0.00 | 95 | 1008.3 |
| 20260509143802 | 24 | 245 | 0.0 | 0.0 | 0.00 | 0.13 | 0.00 | 96 | 1008.3 |
| 20260509143702 | 24 | 244 | 0.0 | 0.0 | 0.00 | 0.13 | 0.00 | 96 | 1008.4 |
| 20260509143602 | 24 | 247 | 0.0 | 0.0 | 0.00 | 0.13 | 0.00 | 96 | 1008.3 |
| 20260509143504 | 24 | 245 | 0.0 | 1.6 | 0.00 | 0.13 | 0.00 | 96 | 1008.4 |
| 20260509143403 | 24 | 248 | 0.0 | 3.2 | 0.00 | 0.13 | 0.00 | 96 | 1008.3 |
| 20260509143301 | 24 | 248 | 0.0 | 3.2 | 0.00 | 0.13 | 0.00 | 96 | 1008.4 |
| 20260509143203 | 24 | 248 | 0.0 | 3.2 | 0.00 | 0.13 | 0.00 | 96 | 1008.4 |
| 20260509143103 | 24 | 247 | 0.0 | 3.2 | 0.00 | 0.13 | 0.00 | 96 | 1008.4 |
| 20260509143002 | 24 | 245 | 0.0 | 3.2 | 0.00 | 0.13 | 0.00 | 96 | 1008.4 |
| 20260509142904 | 24 | 247 | 0.0 | 3.2 | 0.00 | 0.13 | 0.00 | 96 | 1008.5 |
| 20260509142803 | 24 | 245 | 0.0 | 3.2 | 0.00 | 0.13 | 0.00 | 96 | 1008.5 |
| 20260509142702 | 24 | 245 | 0.0 | 3.2 | 0.00 | 0.13 | 0.00 | 96 | 1008.5 |
| 20260509142602 | 24 | 245 | 1.6 | 3.2 | 0.00 | 0.13 | 0.00 | 96 | 1008.4 |
| 20260509142503 | 24 | 245 | 1.6 | 3.2 | 0.00 | 0.13 | 0.00 | 96 | 1008.4 |
| 20260509142403 | 24 | 245 | 1.6 | 3.2 | 0.00 | 0.13 | 0.00 | 96 | 1008.4 |
| 20260509142301 | 24 | 245 | 0.0 | 3.2 | 0.00 | 0.13 | 0.00 | 97 | 1008.4 |
| 20260509142203 | 24 | 247 | 0.0 | 3.2 | 0.00 | 0.13 | 0.00 | 97 | 1008.2 |
| 20260509142103 | 24 | 244 | 0.0 | 3.2 | 0.00 | 0.13 | 0.00 | 97 | 1008.1 |
| 20260509142004 | 24 | 245 | 0.0 | 3.2 | 0.00 | 0.13 | 0.00 | 97 | 1008.2 |
| 20260509141902 | 24 | 243 | 0.0 | 3.2 | 0.00 | 0.13 | 0.00 | 97 | 1008.2 |
| 20260509141802 | 24 | 244 | 1.6 | 3.2 | 0.00 | 0.13 | 0.00 | 97 | 1008.2 |
| 20260509141701 | 24 | 245 | 1.6 | 3.2 | 0.00 | 0.13 | 0.00 | 97 | 1008.2 |
| 20260509141601 | 24 | 245 | 0.0 | 3.2 | 0.00 | 0.13 | 0.00 | 97 | 1008.1 |
| 20260509141458 | 24 | 245 | 0.0 | 0.0 | 0.00 | 0.13 | 0.00 | 97 | 1008.1 |
| 20260509141354 | 24 | 244 | 0.0 | 0.0 | 0.00 | 0.13 | 0.00 | 97 | 1007.9 |
| 20260509141253 | 24 | 244 | 0.0 | 3.2 | 0.00 | 0.13 | 0.00 | 97 | 1007.9 |
| 20260509141149 | 24 | 245 | 0.0 | 3.2 | 0.00 | 0.13 | 0.00 | 97 | 1007.9 |
| 20260509141050 | 24 | 243 | 0.0 | 3.2 | 0.00 | 0.13 | 0.00 | 97 | 1007.9 |
| 20260509140945 | 24 | 244 | 0.0 | 4.8 | 0.00 | 0.13 | 0.00 | 97 | 1007.9 |
| 20260509140845 | 24 | 243 | 0.0 | 4.8 | 0.00 | 0.13 | 0.00 | 97 | 1007.9 |
| 20260509140742 | 24 | 241 | 0.0 | 4.8 | 0.00 | 0.13 | 0.00 | 97 | 1008.0 |
| 20260509140640 | 23 | 240 | 0.0 | 4.8 | 0.00 | 0.13 | 0.00 | 97 | 1008.0 |
| 20260509140539 | 23 | 241 | 0.0 | 4.8 | 0.00 | 0.13 | 0.00 | 97 | 1008.0 |
| 20260509140438 | 23 | 241 | 1.6 | 4.8 | 0.00 | 0.13 | 0.00 | 97 | 1008.1 |
| 20260509140336 | 23 | 241 | 3.2 | 4.8 | 0.00 | 0.13 | 0.00 | 97 | 1008.2 |
| 20260509140234 | 23 | 243 | 3.2 | 4.8 | 0.00 | 0.13 | 0.00 | 97 | 1008.1 |
| 20260509140133 | 23 | 243 | 3.2 | 4.8 | 0.00 | 0.13 | 0.00 | 97 | 1008.2 |
| 20260509140034 | 23 | 243 | 3.2 | 4.8 | 0.00 | 0.13 | 0.00 | 97 | 1008.1 |
| 20260509135931 | 24 | 243 | 1.6 | 4.8 | 0.00 | 0.13 | 0.00 | 98 | 1008.1 |
| 20260509135831 | 24 | 125 | 0.0 | 4.8 | 0.00 | 0.13 | 0.00 | 98 | 1008.0 |
| 20260509135732 | 24 | 125 | 0.0 | 9.7 | 0.00 | 0.13 | 0.00 | 98 | 1008.0 |
| 20260509135631 | 23 | 125 | 1.6 | 9.7 | 0.00 | 0.13 | 0.00 | 98 | 1008.0 |
| 20260509135530 | 23 | 125 | 1.6 | 9.7 | 0.00 | 0.13 | 0.00 | 98 | 1007.9 |
| 20260509135431 | 23 | 131 | 1.6 | 9.7 | 0.00 | 0.13 | 0.00 | 98 | 1008.0 |
| 20260509135330 | 24 | 149 | 1.6 | 9.7 | 0.00 | 0.13 | 0.00 | 98 | 1008.0 |
| 20260509135231 | 23 | 151 | 1.6 | 9.7 | 0.00 | 0.13 | 0.00 | 98 | 1008.0 |
| 20260509135128 | 23 | 149 | 3.2 | 9.7 | 0.00 | 0.13 | 0.00 | 98 | 1008.0 |
| 20260509135027 | 23 | 157 | 3.2 | 9.7 | 0.00 | 0.13 | 0.00 | 98 | 1008.1 |
| 20260509134926 | 23 | 162 | 4.8 | 9.7 | 0.00 | 0.13 | 0.00 | 98 | 1008.1 |
| 20260509134825 | 23 | 168 | 6.4 | 9.7 | 0.00 | 0.13 | 0.00 | 98 | 1008.1 |
| 20260509134723 | 23 | 164 | 4.8 | 9.7 | 0.00 | 0.13 | 0.00 | 98 | 1008.1 |
| 20260509134621 | 23 | 210 | 4.8 | 9.7 | 0.00 | 0.13 | 0.00 | 98 | 1008.2 |
| 20260509134520 | 24 | 203 | 6.4 | 11.3 | 0.00 | 0.13 | 0.00 | 98 | 1008.3 |
| 20260509134417 | 24 | 235 | 4.8 | 11.3 | 0.00 | 0.13 | 0.00 | 98 | 1008.3 |
| 20260509134317 | 24 | 214 | 4.8 | 11.3 | 0.00 | 0.13 | 0.00 | 98 | 1008.4 |
| 20260509134216 | 24 | 195 | 4.8 | 11.3 | 0.00 | 0.13 | 0.00 | 98 | 1008.4 |
| 20260509134116 | 23 | 121 | 6.4 | 11.3 | 0.00 | 0.13 | 0.00 | 98 | 1008.3 |
| 20260509134015 | 24 | 159 | 4.8 | 11.3 | 0.00 | 0.13 | 0.00 | 98 | 1008.3 |
| 20260509133917 | 24 | 180 | 4.8 | 11.3 | 0.00 | 0.13 | 0.00 | 98 | 1008.2 |
| 20260509133816 | 24 | 134 | 4.8 | 11.3 | 0.00 | 0.13 | 0.00 | 98 | 1008.1 |
| 20260509133715 | 24 | 164 | 6.4 | 11.3 | 0.00 | 0.13 | 0.00 | 98 | 1008.0 |
| 20260509133616 | 23 | 131 | 6.4 | 11.3 | 0.00 | 0.13 | 0.00 | 98 | 1008.0 |
| 20260509133515 | 23 | 116 | 4.8 | 8.0 | 0.00 | 0.13 | 0.00 | 98 | 1008.0 |
| 20260509133416 | 23 | 151 | 3.2 | 8.0 | 0.00 | 0.13 | 0.00 | 98 | 1008.0 |
| 20260509133315 | 23 | 114 | 3.2 | 8.0 | 0.00 | 0.13 | 0.00 | 98 | 1008.1 |
| 20260509133216 | 23 | 186 | 3.2 | 8.0 | 0.00 | 0.13 | 0.00 | 98 | 1008.1 |
| 20260509133116 | 23 | 142 | 3.2 | 8.0 | 0.00 | 0.13 | 0.00 | 98 | 1008.3 |
| 20260509133016 | 23 | 144 | 3.2 | 8.0 | 0.00 | 0.13 | 0.00 | 98 | 1008.4 |
| 20260509132917 | 23 | 154 | 4.8 | 8.0 | 0.00 | 0.13 | 0.00 | 98 | 1008.4 |
| 20260509132815 | 23 | 159 | 3.2 | 6.4 | 0.00 | 0.13 | 0.00 | 98 | 1008.5 |
| 20260509132715 | 23 | 135 | 0.0 | 4.8 | 0.00 | 0.13 | 0.00 | 99 | 1008.5 |
| 20260509132616 | 23 | 275 | 0.0 | 1.6 | 0.00 | 0.13 | 0.00 | 99 | 1008.5 |
| 20260509132516 | 23 | 275 | 0.0 | 1.6 | 0.00 | 0.13 | 0.00 | 98 | 1008.6 |
| 20260509132416 | 23 | 278 | 0.0 | 1.6 | 0.00 | 0.13 | 0.00 | 98 | 1008.6 |
| 20260509132315 | 23 | 275 | 0.0 | 1.6 | 0.00 | 0.13 | 0.00 | 98 | 1008.6 |
| 20260509132216 | 23 | 276 | 0.0 | 1.6 | 0.00 | 0.13 | 0.00 | 98 | 1008.6 |
| 20260509132116 | 23 | 274 | 0.0 | 1.6 | 0.00 | 0.13 | 0.00 | 98 | 1008.5 |
| 20260509132016 | 23 | 272 | 0.0 | 1.6 | 0.00 | 0.13 | 0.00 | 98 | 1008.5 |
| 20260509131917 | 23 | 262 | 0.0 | 3.2 | 0.00 | 0.13 | 0.00 | 98 | 1008.6 |
| 20260509131815 | 23 | 278 | 0.0 | 3.2 | 0.00 | 0.13 | 0.00 | 98 | 1008.6 |
| 20260509131715 | 23 | 293 | 0.0 | 4.8 | 0.00 | 0.13 | 0.00 | 98 | 1008.6 |
| 20260509131615 | 23 | 305 | 0.0 | 4.8 | 0.00 | 0.13 | 0.00 | 98 | 1008.5 |
| 20260509131515 | 23 | 309 | 0.0 | 4.8 | 0.00 | 0.13 | 0.00 | 98 | 1008.6 |
| 20260509131415 | 23 | 312 | 0.0 | 4.8 | 0.00 | 0.13 | 0.00 | 98 | 1008.6 |
| 20260509131315 | 23 | 313 | 0.0 | 4.8 | 0.00 | 0.13 | 0.00 | 98 | 1008.7 |
| 20260509131217 | 23 | 313 | 0.0 | 4.8 | 0.00 | 0.13 | 0.00 | 98 | 1008.7 |
| 20260509131116 | 23 | 313 | 0.0 | 4.8 | 0.00 | 0.13 | 0.00 | 98 | 1008.7 |
| 20260509131016 | 23 | 314 | 1.6 | 4.8 | 0.00 | 0.13 | 0.00 | 98 | 1008.8 |
| 20260509130915 | 23 | 314 | 3.2 | 4.8 | 0.00 | 0.13 | 0.00 | 98 | 1008.9 |
| 20260509130817 | 23 | 314 | 3.2 | 4.8 | 0.00 | 0.13 | 0.00 | 98 | 1008.9 |
| 20260509130715 | 23 | 314 | 1.6 | 3.2 | 0.00 | 0.13 | 0.00 | 98 | 1008.9 |
| 20260509130615 | 23 | 314 | 1.6 | 3.2 | 0.00 | 0.13 | 0.00 | 98 | 1008.9 |
| 20260509130516 | 23 | 314 | 1.6 | 3.2 | 0.00 | 0.13 | 0.00 | 98 | 1008.9 |
| 20260509130415 | 23 | 314 | 1.6 | 3.2 | 0.00 | 0.13 | 0.00 | 98 | 1008.9 |
| 20260509130315 | 23 | 314 | 0.0 | 1.6 | 0.00 | 0.13 | 0.00 | 98 | 1008.9 |
| 20260509130217 | 23 | 314 | 0.0 | 1.6 | 0.00 | 0.13 | 0.00 | 98 | 1008.9 |
| 20260509130115 | 23 | 314 | 0.0 | 1.6 | 0.00 | 0.13 | 0.00 | 98 | 1008.9 |
| 20260509130015 | 23 | 314 | 0.0 | 1.6 | 0.00 | 0.13 | 0.00 | 98 | 1009.0 |
| 20260509125915 | 23 | 314 | 0.0 | 3.2 | 0.00 | 0.13 | 0.00 | 98 | 1008.9 |
| 20260509125815 | 23 | 314 | 0.0 | 4.8 | 0.00 | 0.13 | 0.00 | 98 | 1008.9 |
| 20260509125714 | 23 | 314 | 0.0 | 4.8 | 0.00 | 0.13 | 0.00 | 98 | 1009.0 |
| 20260509125616 | 23 | 314 | 1.6 | 4.8 | 0.00 | 0.13 | 0.00 | 98 | 1008.9 |
| 20260509125515 | 23 | 314 | 0.0 | 4.8 | 0.00 | 0.13 | 0.00 | 98 | 1009.0 |
| 20260509125416 | 23 | 314 | 0.0 | 4.8 | 0.00 | 0.13 | 0.00 | 98 | 1009.0 |
| 20260509125314 | 23 | 314 | 0.0 | 4.8 | 0.00 | 0.13 | 0.00 | 98 | 1009.0 |
| 20260509125214 | 23 | 314 | 0.0 | 4.8 | 0.00 | 0.13 | 0.00 | 98 | 1009.0 |
| 20260509125116 | 23 | 314 | 1.6 | 4.8 | 0.00 | 0.13 | 0.00 | 98 | 1009.0 |
| 20260509125014 | 23 | 314 | 3.2 | 4.8 | 0.00 | 0.13 | 0.00 | 98 | 1009.0 |
| 20260509124914 | 23 | 314 | 3.2 | 4.8 | 0.00 | 0.13 | 0.00 | 98 | 1009.0 |
| 20260509124814 | 23 | 314 | 1.6 | 4.8 | 0.00 | 0.13 | 0.00 | 98 | 1008.9 |
| 20260509124716 | 23 | 314 | 1.6 | 4.8 | 0.00 | 0.13 | 0.00 | 98 | 1008.9 |
| 20260509124614 | 23 | 314 | 3.2 | 4.8 | 0.00 | 0.13 | 0.00 | 98 | 1008.8 |
| 20260509124515 | 23 | 306 | 1.6 | 4.8 | 0.00 | 0.13 | 0.00 | 98 | 1008.8 |
| 20260509124417 | 23 | 306 | 1.6 | 4.8 | 0.00 | 0.13 | 0.00 | 98 | 1008.8 |
| 20260509124315 | 23 | 306 | 1.6 | 4.8 | 0.00 | 0.13 | 0.00 | 98 | 1008.7 |
| 20260509124215 | 23 | 306 | 1.6 | 4.8 | 0.00 | 0.13 | 0.00 | 98 | 1008.8 |
| 20260509124115 | 23 | 306 | 1.6 | 4.8 | 0.00 | 0.13 | 0.00 | 98 | 1008.7 |
| 20260509124016 | 23 | 306 | 3.2 | 4.8 | 0.00 | 0.13 | 0.00 | 98 | 1008.7 |
| 20260509123914 | 23 | 306 | 3.2 | 4.8 | 0.00 | 0.13 | 0.00 | 98 | 1008.7 |
| 20260509123814 | 23 | 306 | 1.6 | 4.8 | 0.00 | 0.13 | 0.00 | 98 | 1008.6 |
| 20260509123716 | 23 | 306 | 1.6 | 4.8 | 0.00 | 0.13 | 0.00 | 98 | 1008.6 |
| 20260509123615 | 23 | 306 | 1.6 | 6.4 | 0.00 | 0.13 | 0.00 | 98 | 1008.7 |
| 20260509123515 | 23 | 306 | 3.2 | 6.4 | 0.00 | 0.13 | 0.00 | 98 | 1008.6 |
| 20260509123415 | 23 | 306 | 1.6 | 6.4 | 0.00 | 0.13 | 0.00 | 98 | 1008.6 |
| 20260509123315 | 23 | 306 | 1.6 | 6.4 | 0.00 | 0.13 | 0.00 | 98 | 1008.5 |
| 20260509123215 | 23 | 306 | 1.6 | 6.4 | 0.00 | 0.13 | 0.00 | 98 | 1008.5 |
| 20260509123114 | 23 | 306 | 1.6 | 6.4 | 0.00 | 0.13 | 0.00 | 98 | 1008.5 |
| 20260509123014 | 23 | 306 | 3.2 | 6.4 | 0.00 | 0.13 | 0.00 | 98 | 1008.4 |
| 20260509122914 | 23 | 306 | 3.2 | 6.4 | 0.00 | 0.13 | 0.00 | 98 | 1008.5 |
| 20260509122816 | 23 | 306 | 3.2 | 6.4 | 0.00 | 0.13 | 0.00 | 98 | 1008.5 |
| 20260509122715 | 23 | 306 | 4.8 | 6.4 | 0.00 | 0.13 | 0.00 | 98 | 1008.6 |
| 20260509122615 | 23 | 306 | 4.8 | 6.4 | 0.00 | 0.13 | 0.00 | 98 | 1008.5 |
| 20260509122513 | 23 | 306 | 4.8 | 6.4 | 0.00 | 0.13 | 0.00 | 98 | 1008.5 |
| 20260509122414 | 23 | 299 | 3.2 | 6.4 | 0.00 | 0.13 | 0.00 | 98 | 1008.4 |
| 20260509122316 | 23 | 299 | 3.2 | 6.4 | 0.00 | 0.13 | 0.00 | 98 | 1008.4 |
| 20260509122214 | 23 | 240 | 3.2 | 6.4 | 0.00 | 0.13 | 0.00 | 98 | 1008.3 |
| 20260509122115 | 23 | 240 | 4.8 | 6.4 | 0.00 | 0.13 | 0.00 | 98 | 1008.3 |
| 20260509122014 | 23 | 240 | 4.8 | 6.4 | 0.00 | 0.13 | 0.00 | 98 | 1008.3 |
| 20260509121913 | 23 | 221 | 3.2 | 6.4 | 0.00 | 0.13 | 0.00 | 98 | 1008.2 |
| 20260509121815 | 23 | 220 | 3.2 | 6.4 | 0.00 | 0.13 | 0.00 | 98 | 1008.2 |
| 20260509121714 | 23 | 204 | 3.2 | 6.4 | 0.00 | 0.13 | 0.00 | 98 | 1008.1 |
| 20260509121615 | 23 | 182 | 4.8 | 6.4 | 0.00 | 0.13 | 0.00 | 98 | 1008.1 |
| 20260509121514 | 23 | 189 | 3.2 | 6.4 | 0.00 | 0.13 | 0.00 | 98 | 1008.0 |
| 20260509121414 | 23 | 164 | 1.6 | 6.4 | 0.00 | 0.13 | 0.00 | 98 | 1008.0 |
| 20260509121313 | 23 | 165 | 1.6 | 6.4 | 0.00 | 0.13 | 0.00 | 98 | 1008.0 |
| 20260509121213 | 23 | 188 | 1.6 | 8.0 | 0.00 | 0.13 | 0.00 | 98 | 1008.1 |
| 20260509121114 | 23 | 219 | 3.2 | 8.0 | 0.00 | 0.13 | 0.00 | 98 | 1008.0 |
| 20260509121015 | 23 | 224 | 3.2 | 8.0 | 0.00 | 0.13 | 0.00 | 98 | 1008.0 |
| 20260509120915 | 23 | 223 | 3.2 | 8.0 | 0.00 | 0.13 | 0.00 | 98 | 1008.0 |
| 20260509120813 | 23 | 223 | 3.2 | 9.7 | 0.00 | 0.13 | 0.00 | 98 | 1008.0 |
| 20260509120713 | 23 | 223 | 3.2 | 9.7 | 0.00 | 0.13 | 0.00 | 98 | 1007.9 |
| 20260509120615 | 22 | 204 | 3.2 | 9.7 | 0.00 | 0.13 | 0.00 | 98 | 1007.9 |
| 20260509120514 | 22 | 203 | 4.8 | 9.7 | 0.00 | 0.13 | 0.00 | 98 | 1007.8 |
| 20260509120413 | 22 | 186 | 4.8 | 9.7 | 0.00 | 0.13 | 0.00 | 98 | 1007.9 |
| 20260509120313 | 22 | 195 | 6.4 | 9.7 | 0.00 | 0.13 | 0.00 | 98 | 1007.9 |
| 20260509120215 | 22 | 183 | 4.8 | 9.7 | 0.00 | 0.13 | 0.00 | 98 | 1007.9 |
| 20260509120114 | 22 | 175 | 4.8 | 9.7 | 0.00 | 0.13 | 0.00 | 98 | 1007.8 |
| 20260509120013 | 22 | 171 | 6.4 | 9.7 | 0.00 | 0.13 | 0.00 | 98 | 1007.9 |
| 20260509115915 | 22 | 172 | 6.4 | 9.7 | 0.00 | 0.13 | 0.00 | 98 | 1008.0 |
| 20260509115813 | 22 | 186 | 4.8 | 8.0 | 0.00 | 0.13 | 0.00 | 98 | 1008.0 |
| 20260509115713 | 22 | 164 | 4.8 | 8.0 | 0.00 | 0.13 | 0.00 | 98 | 1008.0 |
| 20260509115614 | 22 | 195 | 4.8 | 8.0 | 0.00 | 0.13 | 0.00 | 98 | 1008.0 |
| 20260509115513 | 22 | 179 | 3.2 | 6.4 | 0.00 | 0.13 | 0.00 | 98 | 1008.0 |
| 20260509115413 | 22 | 183 | 3.2 | 6.4 | 0.00 | 0.13 | 0.00 | 98 | 1008.0 |
| 20260509115313 | 22 | 179 | 3.2 | 6.4 | 0.00 | 0.13 | 0.00 | 98 | 1008.0 |
| 20260509115214 | 22 | 353 | 1.6 | 4.8 | 0.00 | 0.13 | 0.00 | 98 | 1007.9 |
| 20260509115113 | 22 | 0 | 0.0 | 3.2 | 0.00 | 0.13 | 0.00 | 98 | 1008.0 |
| 20260509115014 | 22 | 0 | 0.0 | 0.0 | 0.00 | 0.13 | 0.00 | 98 | 1008.0 |
| 20260509114915 | 22 | 0 | 0.0 | 0.0 | 0.00 | 0.13 | 0.00 | 98 | 1008.0 |
| 20260509114813 | 22 | 0 | 0.0 | 0.0 | 0.00 | 0.13 | 0.00 | 98 | 1008.0 |
| 20260509114713 | 22 | 0 | 0.0 | 3.2 | 0.00 | 0.13 | 0.00 | 98 | 1007.9 |
| 20260509114613 | 22 | 0 | 0.0 | 3.2 | 0.00 | 0.13 | 0.00 | 98 | 1008.0 |
| 20260509114514 | 22 | 0 | 0.0 | 3.2 | 0.00 | 0.13 | 0.00 | 98 | 1008.0 |
| 20260509114413 | 22 | 0 | 0.0 | 3.2 | 0.00 | 0.13 | 0.00 | 98 | 1008.0 |
| 20260509114314 | 22 | 0 | 0.0 | 4.8 | 0.00 | 0.13 | 0.00 | 98 | 1008.0 |
| 20260509114215 | 22 | 0 | 0.0 | 4.8 | 0.00 | 0.13 | 0.00 | 98 | 1008.1 |
| 20260509114113 | 22 | 0 | 0.0 | 6.4 | 0.00 | 0.13 | 0.00 | 98 | 1008.1 |
| 20260509114013 | 22 | 0 | 0.0 | 6.4 | 0.00 | 0.13 | 0.00 | 98 | 1008.2 |
| 20260509113914 | 22 | 0 | 0.0 | 6.4 | 0.00 | 0.13 | 0.00 | 98 | 1008.1 |
| 20260509113815 | 22 | 0 | 1.6 | 6.4 | 0.00 | 0.13 | 0.00 | 98 | 1008.1 |
| 20260509113713 | 22 | 0 | 1.6 | 6.4 | 0.00 | 0.13 | 0.00 | 98 | 1008.1 |
| 20260509113612 | 22 | 0 | 1.6 | 6.4 | 0.00 | 0.13 | 0.00 | 98 | 1008.1 |
| 20260509113513 | 22 | 0 | 1.6 | 6.4 | 0.00 | 0.13 | 0.00 | 98 | 1008.1 |
| 20260509113414 | 22 | 0 | 3.2 | 6.4 | 0.00 | 0.13 | 0.00 | 98 | 1008.2 |
| 20260509113314 | 22 | 0 | 3.2 | 6.4 | 0.00 | 0.13 | 0.00 | 98 | 1008.1 |
| 20260509113214 | 22 | 0 | 4.8 | 6.4 | 0.00 | 0.13 | 0.00 | 98 | 1008.2 |
| 20260509113115 | 22 | 0 | 3.2 | 4.8 | 0.00 | 0.13 | 0.00 | 98 | 1008.1 |
| 20260509113012 | 22 | 0 | 3.2 | 4.8 | 0.00 | 0.13 | 0.00 | 98 | 1008.1 |
| 20260509112912 | 22 | 0 | 1.6 | 4.8 | 0.00 | 0.13 | 0.00 | 98 | 1008.2 |
| 20260509112813 | 22 | 0 | 0.0 | 4.8 | 0.00 | 0.13 | 0.00 | 98 | 1008.3 |
| 20260509112712 | 22 | 0 | 0.0 | 4.8 | 0.00 | 0.13 | 0.00 | 98 | 1008.4 |
| 20260509112612 | 22 | 0 | 0.0 | 4.8 | 0.00 | 0.13 | 0.00 | 98 | 1008.4 |
| 20260509112512 | 22 | 0 | 0.0 | 4.8 | 0.00 | 0.13 | 0.00 | 98 | 1008.5 |
| 20260509112413 | 22 | 0 | 0.0 | 4.8 | 0.00 | 0.13 | 0.00 | 98 | 1008.5 |
| 20260509112310 | 22 | 0 | 1.6 | 4.8 | 0.00 | 0.13 | 0.00 | 98 | 1008.4 |
| 20260509112210 | 22 | 0 | 1.6 | 4.8 | 0.00 | 0.13 | 0.00 | 98 | 1008.5 |
| 20260509112109 | 22 | 0 | 1.6 | 4.8 | 0.00 | 0.13 | 0.00 | 98 | 1008.5 |
| 20260509112006 | 22 | 0 | 0.0 | 6.4 | 0.00 | 0.13 | 0.00 | 98 | 1008.5 |
| 20260509111904 | 22 | 0 | 0.0 | 6.4 | 0.00 | 0.13 | 0.00 | 98 | 1008.5 |
| 20260509111804 | 22 | 0 | 0.0 | 6.4 | 0.00 | 0.13 | 0.00 | 98 | 1008.5 |
| 20260509111704 | 22 | 0 | 0.0 | 9.7 | 0.00 | 0.13 | 0.00 | 98 | 1008.6 |
| 20260509111604 | 22 | 0 | 1.6 | 9.7 | 0.00 | 0.13 | 0.00 | 98 | 1008.6 |
| 20260509111504 | 22 | 0 | 3.2 | 9.7 | 0.00 | 0.13 | 0.00 | 98 | 1008.6 |
| 20260509111402 | 22 | 0 | 3.2 | 9.7 | 0.00 | 0.13 | 0.00 | 98 | 1008.7 |
| 20260509111301 | 22 | 0 | 3.2 | 9.7 | 0.00 | 0.13 | 0.00 | 98 | 1008.7 |
| 20260509111202 | 22 | 0 | 3.2 | 9.7 | 0.00 | 0.13 | 0.00 | 98 | 1008.8 |
| 20260509111104 | 22 | 0 | 3.2 | 9.7 | 0.00 | 0.13 | 0.00 | 98 | 1008.6 |
| 20260509111003 | 22 | 353 | 3.2 | 9.7 | 0.00 | 0.13 | 0.00 | 98 | 1008.6 |
| 20260509110903 | 22 | 353 | 6.4 | 9.7 | 0.00 | 0.13 | 0.00 | 98 | 1008.6 |
| 20260509110802 | 22 | 4 | 6.4 | 9.7 | 0.00 | 0.13 | 0.00 | 98 | 1008.6 |
| 20260509110703 | 22 | 350 | 6.4 | 8.0 | 0.00 | 0.13 | 0.00 | 98 | 1008.5 |
| 20260509110602 | 22 | 343 | 6.4 | 8.0 | 0.00 | 0.13 | 0.00 | 98 | 1008.5 |
| 20260509110503 | 22 | 0 | 4.8 | 8.0 | 0.00 | 0.13 | 0.00 | 98 | 1008.5 |
| 20260509110404 | 22 | 353 | 3.2 | 6.4 | 0.00 | 0.13 | 0.00 | 98 | 1008.5 |
| 20260509110302 | 22 | 353 | 4.8 | 6.4 | 0.00 | 0.13 | 0.00 | 98 | 1008.5 |
| 20260509110202 | 22 | 353 | 3.2 | 6.4 | 0.00 | 0.13 | 0.00 | 98 | 1008.5 |
| 20260509110103 | 22 | 0 | 3.2 | 6.4 | 0.00 | 0.13 | 0.00 | 98 | 1008.4 |
| 20260509110004 | 22 | 0 | 3.2 | 6.4 | 0.00 | 0.13 | 0.00 | 98 | 1008.4 |
| 20260509105902 | 22 | 0 | 4.8 | 6.4 | 0.00 | 0.13 | 0.00 | 98 | 1008.4 |
| 20260509105802 | 22 | 341 | 4.8 | 6.4 | 0.00 | 0.13 | 0.00 | 98 | 1008.3 |
| 20260509105703 | 22 | 344 | 4.8 | 6.4 | 0.00 | 0.13 | 0.00 | 98 | 1008.3 |
| 20260509105603 | 22 | 353 | 3.2 | 6.4 | 0.00 | 0.13 | 0.00 | 98 | 1008.3 |
| 20260509105504 | 22 | 353 | 4.8 | 6.4 | 0.00 | 0.13 | 0.00 | 98 | 1008.2 |
| 20260509105402 | 22 | 353 | 3.2 | 6.4 | 0.00 | 0.13 | 0.00 | 98 | 1008.2 |
| 20260509105306 | 22 | 18 | 3.2 | 4.8 | 0.00 | 0.13 | 0.00 | 98 | 1008.1 |
| 20260509105204 | 22 | 18 | 3.2 | 4.8 | 0.00 | 0.13 | 0.00 | 98 | 1008.1 |
| 20260509105103 | 22 | 18 | 3.2 | 4.8 | 0.00 | 0.13 | 0.00 | 98 | 1008.1 |
| 20260509105005 | 22 | 23 | 3.2 | 4.8 | 0.00 | 0.13 | 0.00 | 98 | 1008.0 |
| 20260509104903 | 22 | 23 | 3.2 | 4.8 | 0.00 | 0.13 | 0.00 | 98 | 1008.0 |
| 20260509104802 | 22 | 23 | 3.2 | 4.8 | 0.00 | 0.13 | 0.00 | 98 | 1008.0 |
| 20260509104702 | 22 | 24 | 3.2 | 4.8 | 0.00 | 0.13 | 0.00 | 98 | 1008.0 |
| 20260509104603 | 22 | 24 | 3.2 | 4.8 | 0.00 | 0.13 | 0.00 | 98 | 1008.0 |
| 20260509104504 | 22 | 24 | 3.2 | 4.8 | 0.00 | 0.13 | 0.00 | 98 | 1008.0 |
| 20260509104402 | 22 | 25 | 3.2 | 4.8 | 0.00 | 0.13 | 0.00 | 98 | 1008.0 |
| 20260509104304 | 22 | 56 | 1.6 | 4.8 | 0.00 | 0.13 | 0.00 | 98 | 1008.0 |
| 20260509104202 | 22 | 72 | 0.0 | 3.2 | 0.00 | 0.13 | 0.00 | 98 | 1007.9 |
| 20260509104108 | 22 | 72 | 0.0 | 1.6 | 0.00 | 0.13 | 0.00 | 98 | 1007.9 |
| 20260509104004 | 22 | 145 | 0.0 | 1.6 | 0.00 | 0.13 | 0.00 | 98 | 1007.9 |
| 20260509103903 | 22 | 145 | 0.0 | 1.6 | 0.00 | 0.13 | 0.00 | 98 | 1007.9 |
| 20260509103802 | 22 | 145 | 0.0 | 1.6 | 0.00 | 0.13 | 0.00 | 98 | 1007.9 |
| 20260509103659 | 22 | 145 | 0.0 | 1.6 | 0.00 | 0.13 | 0.00 | 98 | 1007.9 |
| 20260509103557 | 22 | 145 | 0.0 | 1.6 | 0.00 | 0.13 | 0.00 | 98 | 1008.0 |
| 20260509103456 | 22 | 145 | 0.0 | 4.8 | 0.00 | 0.13 | 0.00 | 98 | 1007.9 |
| 20260509103356 | 22 | 145 | 0.0 | 4.8 | 0.00 | 0.13 | 0.00 | 98 | 1007.9 |
| 20260509103253 | 22 | 145 | 0.0 | 4.8 | 0.00 | 0.13 | 0.00 | 98 | 1007.8 |
| 20260509103153 | 22 | 145 | 0.0 | 4.8 | 0.00 | 0.13 | 0.00 | 98 | 1007.9 |
| 20260509103050 | 22 | 145 | 0.0 | 4.8 | 0.00 | 0.13 | 0.00 | 98 | 1007.9 |
| 20260509102948 | 22 | 145 | 0.0 | 4.8 | 0.00 | 0.13 | 0.00 | 98 | 1007.8 |
| 20260509102848 | 22 | 145 | 0.0 | 4.8 | 0.00 | 0.13 | 0.00 | 98 | 1007.8 |
| 20260509102746 | 22 | 145 | 1.6 | 4.8 | 0.00 | 0.13 | 0.00 | 98 | 1007.9 |
| 20260509102644 | 22 | 145 | 1.6 | 4.8 | 0.00 | 0.13 | 0.00 | 98 | 1007.8 |
| 20260509102542 | 22 | 145 | 3.2 | 4.8 | 0.00 | 0.13 | 0.00 | 98 | 1007.9 |
| 20260509102441 | 22 | 172 | 3.2 | 4.8 | 0.00 | 0.13 | 0.00 | 98 | 1007.8 |
| 20260509102339 | 22 | 97 | 1.6 | 4.8 | 0.00 | 0.13 | 0.00 | 98 | 1007.7 |
| 20260509102239 | 22 | 97 | 1.6 | 4.8 | 0.00 | 0.13 | 0.00 | 98 | 1007.7 |
| 20260509102134 | 22 | 96 | 1.6 | 4.8 | 0.00 | 0.13 | 0.00 | 98 | 1007.6 |
| 20260509102032 | 22 | 96 | 1.6 | 4.8 | 0.00 | 0.13 | 0.00 | 98 | 1007.5 |
| 20260509101930 | 22 | 93 | 1.6 | 4.8 | 0.00 | 0.13 | 0.00 | 98 | 1007.6 |
| 20260509101832 | 22 | 92 | 1.6 | 4.8 | 0.00 | 0.13 | 0.00 | 98 | 1007.6 |
| 20260509101732 | 22 | 141 | 3.2 | 4.8 | 0.00 | 0.13 | 0.00 | 98 | 1007.6 |
| 20260509101633 | 22 | 147 | 3.2 | 4.8 | 0.00 | 0.13 | 0.00 | 98 | 1007.5 |
| 20260509101533 | 22 | 127 | 3.2 | 4.8 | 0.00 | 0.13 | 0.00 | 98 | 1007.5 |
| 20260509101432 | 22 | 137 | 3.2 | 4.8 | 0.00 | 0.13 | 0.00 | 98 | 1007.4 |
| 20260509101332 | 22 | 142 | 3.2 | 4.8 | 0.00 | 0.13 | 0.00 | 98 | 1007.4 |
| 20260509101230 | 22 | 142 | 3.2 | 4.8 | 0.00 | 0.13 | 0.00 | 98 | 1007.4 |
| 20260509101132 | 22 | 135 | 3.2 | 4.8 | 0.00 | 0.13 | 0.00 | 98 | 1007.4 |
| 20260509101030 | 22 | 90 | 1.6 | 4.8 | 0.00 | 0.13 | 0.00 | 98 | 1007.4 |
| 20260509100928 | 22 | 87 | 1.6 | 4.8 | 0.00 | 0.13 | 0.00 | 98 | 1007.4 |
| 20260509100827 | 22 | 87 | 1.6 | 4.8 | 0.00 | 0.13 | 0.00 | 98 | 1007.4 |
| 20260509100725 | 22 | 35 | 1.6 | 3.2 | 0.00 | 0.13 | 0.00 | 98 | 1007.4 |
| 20260509100624 | 22 | 35 | 1.6 | 3.2 | 0.00 | 0.13 | 0.00 | 98 | 1007.5 |
| 20260509100519 | 22 | 7 | 1.6 | 3.2 | 0.00 | 0.13 | 0.00 | 98 | 1007.4 |
| 20260509100419 | 22 | 338 | 1.6 | 3.2 | 0.00 | 0.13 | 0.00 | 98 | 1007.5 |
| 20260509100318 | 22 | 338 | 0.0 | 3.2 | 0.00 | 0.13 | 0.00 | 98 | 1007.4 |
| 20260509100218 | 22 | 338 | 1.6 | 3.2 | 0.00 | 0.13 | 0.00 | 98 | 1007.5 |
| 20260509100118 | 22 | 338 | 1.6 | 3.2 | 0.00 | 0.13 | 0.00 | 98 | 1007.5 |
| 20260509100016 | 22 | 338 | 1.6 | 3.2 | 0.00 | 0.13 | 0.00 | 98 | 1007.5 |
| 20260509095915 | 22 | 338 | 1.6 | 3.2 | 0.00 | 0.13 | 0.00 | 98 | 1007.4 |
| 20260509095815 | 22 | 338 | 1.6 | 3.2 | 0.00 | 0.13 | 0.00 | 98 | 1007.3 |
| 20260509095712 | 22 | 338 | 1.6 | 3.2 | 0.00 | 0.13 | 0.00 | 98 | 1007.3 |
| 20260509095611 | 22 | 338 | 0.0 | 3.2 | 0.00 | 0.13 | 0.00 | 98 | 1007.3 |
| 20260509095510 | 22 | 338 | 0.0 | 3.2 | 0.00 | 0.13 | 0.00 | 98 | 1007.3 |
| 20260509095411 | 22 | 338 | 1.6 | 3.2 | 0.00 | 0.13 | 0.00 | 98 | 1007.3 |
| 20260509095311 | 22 | 338 | 1.6 | 3.2 | 0.00 | 0.13 | 0.00 | 98 | 1007.3 |
| 20260509095210 | 22 | 338 | 0.0 | 3.2 | 0.00 | 0.13 | 0.00 | 98 | 1007.3 |
| 20260509095110 | 22 | 338 | 0.0 | 3.2 | 0.00 | 0.13 | 0.00 | 98 | 1007.2 |
| 20260509095010 | 22 | 338 | 0.0 | 3.2 | 0.00 | 0.13 | 0.00 | 98 | 1007.2 |
| 20260509094910 | 22 | 338 | 0.0 | 4.8 | 0.00 | 0.13 | 0.00 | 98 | 1007.2 |
| 20260509094810 | 22 | 338 | 0.0 | 4.8 | 0.00 | 0.13 | 0.00 | 98 | 1007.2 |
| 20260509094711 | 22 | 338 | 0.0 | 4.8 | 0.00 | 0.13 | 0.00 | 98 | 1007.2 |
| 20260509094610 | 22 | 338 | 0.0 | 4.8 | 0.00 | 0.13 | 0.00 | 98 | 1007.2 |
| 20260509094511 | 22 | 338 | 0.0 | 6.4 | 0.00 | 0.13 | 0.00 | 98 | 1007.2 |
| 20260509094412 | 22 | 338 | 0.0 | 6.4 | 0.00 | 0.13 | 0.00 | 98 | 1007.3 |
| 20260509094310 | 22 | 338 | 0.0 | 6.4 | 0.00 | 0.13 | 0.00 | 98 | 1007.4 |
| 20260509094211 | 22 | 338 | 1.6 | 6.4 | 0.00 | 0.13 | 0.00 | 98 | 1007.3 |
| 20260509094110 | 22 | 338 | 3.2 | 6.4 | 0.00 | 0.13 | 0.00 | 98 | 1007.3 |
| 20260509094013 | 22 | 338 | 3.2 | 6.4 | 0.00 | 0.13 | 0.00 | 98 | 1007.5 |
| 20260509093911 | 22 | 338 | 3.2 | 6.4 | 0.00 | 0.13 | 0.00 | 98 | 1007.5 |
| 20260509093810 | 22 | 338 | 3.2 | 6.4 | 0.00 | 0.13 | 0.00 | 98 | 1007.5 |
| 20260509093710 | 22 | 338 | 4.8 | 6.4 | 0.00 | 0.13 | 0.00 | 98 | 1007.5 |
| 20260509093611 | 22 | 338 | 4.8 | 6.4 | 0.00 | 0.13 | 0.00 | 98 | 1007.5 |
| 20260509093510 | 22 | 338 | 3.2 | 4.8 | 0.00 | 0.13 | 0.00 | 98 | 1007.5 |
| 20260509093410 | 22 | 338 | 3.2 | 4.8 | 0.00 | 0.13 | 0.00 | 98 | 1007.5 |
| 20260509093311 | 22 | 337 | 3.2 | 4.8 | 0.00 | 0.13 | 0.00 | 98 | 1007.5 |
| 20260509093211 | 22 | 337 | 1.6 | 4.8 | 0.00 | 0.13 | 0.00 | 98 | 1007.6 |
| 20260509093111 | 22 | 337 | 1.6 | 4.8 | 0.00 | 0.13 | 0.00 | 98 | 1007.6 |
| 20260509093011 | 22 | 337 | 3.2 | 4.8 | 0.00 | 0.13 | 0.00 | 98 | 1007.6 |
| 20260509092909 | 22 | 337 | 3.2 | 4.8 | 0.00 | 0.13 | 0.00 | 98 | 1007.7 |
| 20260509092810 | 22 | 337 | 3.2 | 4.8 | 0.00 | 0.13 | 0.00 | 98 | 1007.7 |
| 20260509092711 | 22 | 337 | 1.6 | 3.2 | 0.00 | 0.13 | 0.00 | 98 | 1007.7 |
| 20260509092611 | 22 | 337 | 1.6 | 3.2 | 0.00 | 0.13 | 0.00 | 98 | 1007.8 |
| 20260509092509 | 22 | 337 | 1.6 | 3.2 | 0.00 | 0.13 | 0.00 | 98 | 1007.7 |
| 20260509092409 | 22 | 337 | 1.6 | 3.2 | 0.00 | 0.13 | 0.00 | 98 | 1007.9 |
| 20260509092312 | 22 | 337 | 1.6 | 3.2 | 0.00 | 0.13 | 0.00 | 98 | 1008.0 |
| 20260509092210 | 22 | 337 | 1.6 | 3.2 | 0.00 | 0.13 | 0.00 | 98 | 1008.0 |
| 20260509092110 | 22 | 337 | 1.6 | 3.2 | 0.00 | 0.13 | 0.00 | 98 | 1008.0 |
| 20260509092010 | 22 | 337 | 1.6 | 3.2 | 0.00 | 0.13 | 0.00 | 98 | 1008.0 |
| 20260509091911 | 22 | 337 | 1.6 | 3.2 | 0.00 | 0.13 | 0.00 | 98 | 1007.9 |
| 20260509091810 | 22 | 337 | 1.6 | 3.2 | 0.00 | 0.13 | 0.00 | 98 | 1007.9 |
| 20260509091710 | 22 | 337 | 1.6 | 3.2 | 0.00 | 0.13 | 0.00 | 98 | 1007.9 |
| 20260509091610 | 22 | 337 | 0.0 | 3.2 | 0.00 | 0.13 | 0.00 | 98 | 1008.0 |
| 20260509091509 | 22 | 337 | 0.0 | 3.2 | 0.00 | 0.13 | 0.00 | 98 | 1008.0 |
| 20260509091410 | 22 | 337 | 0.0 | 4.8 | 0.00 | 0.13 | 0.00 | 98 | 1008.0 |
| 20260509091309 | 22 | 337 | 0.0 | 4.8 | 0.00 | 0.13 | 0.00 | 98 | 1007.9 |
| 20260509091211 | 22 | 337 | 0.0 | 4.8 | 0.00 | 0.13 | 0.00 | 98 | 1007.8 |
| 20260509091110 | 22 | 337 | 1.6 | 4.8 | 0.00 | 0.13 | 0.00 | 98 | 1007.8 |
| 20260509091010 | 22 | 337 | 1.6 | 4.8 | 0.00 | 0.13 | 0.00 | 98 | 1007.8 |
| 20260509090910 | 22 | 337 | 3.2 | 4.8 | 0.00 | 0.13 | 0.00 | 98 | 1007.8 |
| 20260509090809 | 22 | 337 | 3.2 | 4.8 | 0.00 | 0.13 | 0.00 | 98 | 1007.8 |
| 20260509090710 | 22 | 337 | 3.2 | 4.8 | 0.00 | 0.13 | 0.00 | 98 | 1007.8 |
| 20260509090610 | 22 | 337 | 3.2 | 4.8 | 0.00 | 0.13 | 0.00 | 98 | 1007.8 |
| 20260509090510 | 22 | 337 | 3.2 | 4.8 | 0.00 | 0.13 | 0.00 | 98 | 1007.8 |
| 20260509090409 | 22 | 337 | 3.2 | 4.8 | 0.00 | 0.13 | 0.00 | 98 | 1007.8 |
| 20260509090309 | 22 | 337 | 3.2 | 4.8 | 0.00 | 0.13 | 0.00 | 98 | 1007.9 |
| 20260509090211 | 22 | 341 | 4.8 | 4.8 | 0.00 | 0.13 | 0.00 | 98 | 1007.9 |
| 20260509090110 | 22 | 347 | 3.2 | 4.8 | 0.00 | 0.13 | 0.00 | 98 | 1007.9 |
| 20260509090009 | 22 | 353 | 3.2 | 4.8 | 0.00 | 0.13 | 0.00 | 98 | 1007.9 |
| 20260509085910 | 22 | 23 | 3.2 | 4.8 | 0.00 | 0.13 | 0.00 | 98 | 1007.8 |
| 20260509085809 | 22 | 23 | 3.2 | 4.8 | 0.00 | 0.13 | 0.00 | 98 | 1007.8 |
| 20260509085709 | 22 | 23 | 3.2 | 4.8 | 0.00 | 0.13 | 0.00 | 98 | 1007.8 |
| 20260509085609 | 22 | 23 | 3.2 | 4.8 | 0.00 | 0.13 | 0.00 | 97 | 1007.7 |
| 20260509085510 | 22 | 23 | 3.2 | 4.8 | 0.00 | 0.13 | 0.00 | 97 | 1007.7 |
| 20260509085409 | 22 | 72 | 1.6 | 3.2 | 0.00 | 0.13 | 0.00 | 97 | 1007.7 |
| 20260509085308 | 22 | 72 | 0.0 | 0.0 | 0.00 | 0.13 | 0.00 | 97 | 1007.6 |
| 20260509085211 | 22 | 72 | 0.0 | 0.0 | 0.00 | 0.13 | 0.00 | 98 | 1007.6 |
| 20260509085109 | 22 | 72 | 0.0 | 0.0 | 0.00 | 0.13 | 0.00 | 98 | 1007.6 |
| 20260509085009 | 22 | 72 | 0.0 | 0.0 | 0.00 | 0.13 | 0.00 | 98 | 1007.6 |
| 20260509084909 | 22 | 72 | 0.0 | 0.0 | 0.00 | 0.13 | 0.00 | 98 | 1007.6 |
| 20260509084811 | 22 | 72 | 0.0 | 0.0 | 0.00 | 0.13 | 0.00 | 98 | 1007.6 |
| 20260509084708 | 22 | 72 | 0.0 | 0.0 | 0.00 | 0.13 | 0.00 | 98 | 1007.6 |
| 20260509084609 | 22 | 72 | 0.0 | 0.0 | 0.00 | 0.13 | 0.00 | 98 | 1007.6 |
| 20260509084510 | 22 | 72 | 0.0 | 0.0 | 0.00 | 0.13 | 0.00 | 98 | 1007.7 |
| 20260509084408 | 22 | 72 | 0.0 | 0.0 | 0.00 | 0.13 | 0.00 | 98 | 1007.7 |
| 20260509084309 | 22 | 72 | 0.0 | 1.6 | 0.00 | 0.13 | 0.00 | 98 | 1007.6 |
| 20260509084210 | 22 | 72 | 0.0 | 1.6 | 0.00 | 0.13 | 0.00 | 98 | 1007.7 |
| 20260509084111 | 22 | 72 | 0.0 | 3.2 | 0.00 | 0.13 | 0.00 | 98 | 1007.7 |
| 20260509084008 | 22 | 72 | 0.0 | 3.2 | 0.00 | 0.13 | 0.00 | 98 | 1007.8 |
| 20260509083909 | 22 | 72 | 0.0 | 3.2 | 0.00 | 0.13 | 0.00 | 98 | 1007.7 |
| 20260509083809 | 22 | 72 | 0.0 | 3.2 | 0.00 | 0.13 | 0.00 | 98 | 1007.7 |
| 20260509083709 | 22 | 72 | 0.0 | 3.2 | 0.00 | 0.13 | 0.00 | 98 | 1007.7 |
| 20260509083608 | 22 | 72 | 0.0 | 3.2 | 0.00 | 0.13 | 0.00 | 98 | 1007.6 |
| 20260509083509 | 22 | 72 | 0.0 | 3.2 | 0.00 | 0.13 | 0.00 | 98 | 1007.6 |
| 20260509083410 | 22 | 72 | 0.0 | 3.2 | 0.00 | 0.13 | 0.00 | 98 | 1007.5 |
| 20260509083308 | 22 | 72 | 1.6 | 3.2 | 0.00 | 0.13 | 0.00 | 97 | 1007.6 |
| 20260509083208 | 22 | 72 | 1.6 | 3.2 | 0.00 | 0.13 | 0.00 | 97 | 1007.7 |
| 20260509083109 | 22 | 72 | 1.6 | 3.2 | 0.00 | 0.13 | 0.00 | 97 | 1007.7 |
| 20260509083008 | 22 | 72 | 1.6 | 3.2 | 0.00 | 0.13 | 0.00 | 97 | 1007.7 |
| 20260509082909 | 22 | 72 | 1.6 | 3.2 | 0.00 | 0.13 | 0.00 | 97 | 1007.6 |
| 20260509082809 | 22 | 72 | 1.6 | 3.2 | 0.00 | 0.13 | 0.00 | 97 | 1007.6 |
| 20260509082708 | 22 | 72 | 3.2 | 3.2 | 0.00 | 0.13 | 0.00 | 97 | 1007.6 |
| 20260509082609 | 22 | 72 | 1.6 | 3.2 | 0.00 | 0.13 | 0.00 | 98 | 1007.6 |